<?xml version="1.0" encoding="UTF-8" standalone="no" ?>
<gpx xmlns="http://www.topografix.com/GPX/1/1" xmlns:xsi="http://www.w3.org/2001/XMLSchema-instance" xsi:schemaLocation="http://www.topografix.com/GPX/1/1 http://www.topografix.com/GPX/1/1/gpx.xsd" version="1.1" creator="VisuGPX - https://www.visugpx.com">
  <metadata>
    <name>094_Circuit 65 km Les Herbiers_Les Herbiers édité par cth85.com</name>
    <desc><![CDATA[Circuit de 65 km passant par:
Les Herbiers
D755 direction La Gaubretière
D755 Les Landes Genusson
D72 La Boissière de Montaigu
D23 La Guyonnière
D86 Treize Septiers
D62 La Bruffière
D102 Tiffauges
D9 La Gaubretière
D27 direction Chambretaud
après l'autoroute, à droite, la grillière, l'ouvrardière
Les Herbiers]]></desc>
  </metadata>
  <trk>
    <name><![CDATA[13659619-65_94]]></name>
    <trkseg>
      <trkpt lat="46.86382" lon="-1.00562">
        <ele>120</ele>
        <time>2021-09-04T14:17:49Z</time>
      </trkpt>
      <trkpt lat="46.86391" lon="-1.00556">
        <ele>120</ele>
        <time>2021-09-04T14:17:51Z</time>
      </trkpt>
      <trkpt lat="46.86426" lon="-1.00564">
        <ele>120</ele>
        <time>2021-09-04T14:17:57Z</time>
      </trkpt>
      <trkpt lat="46.86461" lon="-1.00561">
        <ele>120</ele>
        <time>2021-09-04T14:18:03Z</time>
      </trkpt>
      <trkpt lat="46.86495" lon="-1.00567">
        <ele>119</ele>
        <time>2021-09-04T14:18:09Z</time>
      </trkpt>
      <trkpt lat="46.86523" lon="-1.00577">
        <ele>118</ele>
        <time>2021-09-04T14:18:15Z</time>
      </trkpt>
      <trkpt lat="46.86573" lon="-1.00609">
        <ele>117</ele>
        <time>2021-09-04T14:18:24Z</time>
      </trkpt>
      <trkpt lat="46.86595" lon="-1.00621">
        <ele>116</ele>
        <time>2021-09-04T14:18:28Z</time>
      </trkpt>
      <trkpt lat="46.86664" lon="-1.00646">
        <ele>111</ele>
        <time>2021-09-04T14:18:41Z</time>
      </trkpt>
      <trkpt lat="46.86708" lon="-1.0066">
        <ele>111</ele>
        <time>2021-09-04T14:18:49Z</time>
      </trkpt>
      <trkpt lat="46.86712" lon="-1.00666">
        <ele>111</ele>
        <time>2021-09-04T14:18:50Z</time>
      </trkpt>
      <trkpt lat="46.86714" lon="-1.00674">
        <ele>111</ele>
        <time>2021-09-04T14:18:51Z</time>
      </trkpt>
      <trkpt lat="46.86724" lon="-1.0067">
        <ele>111</ele>
        <time>2021-09-04T14:18:53Z</time>
      </trkpt>
      <trkpt lat="46.86726" lon="-1.00678">
        <ele>111</ele>
        <time>2021-09-04T14:18:54Z</time>
      </trkpt>
      <trkpt lat="46.8673" lon="-1.00788">
        <ele>109</ele>
        <time>2021-09-04T14:19:07Z</time>
      </trkpt>
      <trkpt lat="46.86701" lon="-1.00815">
        <ele>109</ele>
        <time>2021-09-04T14:19:14Z</time>
      </trkpt>
      <trkpt lat="46.86677" lon="-1.00855">
        <ele>110</ele>
        <time>2021-09-04T14:19:20Z</time>
      </trkpt>
      <trkpt lat="46.86599" lon="-1.00939">
        <ele>110</ele>
        <time>2021-09-04T14:19:37Z</time>
      </trkpt>
      <trkpt lat="46.86588" lon="-1.00948">
        <ele>111</ele>
        <time>2021-09-04T14:19:39Z</time>
      </trkpt>
      <trkpt lat="46.86579" lon="-1.00961">
        <ele>111</ele>
        <time>2021-09-04T14:19:42Z</time>
      </trkpt>
      <trkpt lat="46.86581" lon="-1.01009">
        <ele>110</ele>
        <time>2021-09-04T14:19:48Z</time>
      </trkpt>
      <trkpt lat="46.86597" lon="-1.01031">
        <ele>109</ele>
        <time>2021-09-04T14:19:51Z</time>
      </trkpt>
      <trkpt lat="46.86602" lon="-1.01045">
        <ele>109</ele>
        <time>2021-09-04T14:19:53Z</time>
      </trkpt>
      <trkpt lat="46.86611" lon="-1.01056">
        <ele>109</ele>
        <time>2021-09-04T14:19:55Z</time>
      </trkpt>
      <trkpt lat="46.8662" lon="-1.01062">
        <ele>108</ele>
        <time>2021-09-04T14:19:57Z</time>
      </trkpt>
      <trkpt lat="46.86628" lon="-1.01074">
        <ele>108</ele>
        <time>2021-09-04T14:19:59Z</time>
      </trkpt>
      <trkpt lat="46.86652" lon="-1.01103">
        <ele>107</ele>
        <time>2021-09-04T14:20:05Z</time>
      </trkpt>
      <trkpt lat="46.86671" lon="-1.01102">
        <ele>107</ele>
        <time>2021-09-04T14:20:08Z</time>
      </trkpt>
      <trkpt lat="46.86664" lon="-1.01122">
        <ele>107</ele>
        <time>2021-09-04T14:20:11Z</time>
      </trkpt>
      <trkpt lat="46.86664" lon="-1.01149">
        <ele>107</ele>
        <time>2021-09-04T14:20:14Z</time>
      </trkpt>
      <trkpt lat="46.86695" lon="-1.01251">
        <ele>108</ele>
        <time>2021-09-04T14:20:28Z</time>
      </trkpt>
      <trkpt lat="46.86711" lon="-1.01363">
        <ele>111</ele>
        <time>2021-09-04T14:20:42Z</time>
      </trkpt>
      <trkpt lat="46.86716" lon="-1.01377">
        <ele>112</ele>
        <time>2021-09-04T14:20:44Z</time>
      </trkpt>
      <trkpt lat="46.8672" lon="-1.01379">
        <ele>112</ele>
        <time>2021-09-04T14:20:44Z</time>
      </trkpt>
      <trkpt lat="46.86722" lon="-1.01386">
        <ele>112</ele>
        <time>2021-09-04T14:20:45Z</time>
      </trkpt>
      <trkpt lat="46.8673" lon="-1.01396">
        <ele>112</ele>
        <time>2021-09-04T14:20:47Z</time>
      </trkpt>
      <trkpt lat="46.86754" lon="-1.01414">
        <ele>113</ele>
        <time>2021-09-04T14:20:52Z</time>
      </trkpt>
      <trkpt lat="46.86797" lon="-1.01458">
        <ele>111</ele>
        <time>2021-09-04T14:21:01Z</time>
      </trkpt>
      <trkpt lat="46.86819" lon="-1.01472">
        <ele>110</ele>
        <time>2021-09-04T14:21:06Z</time>
      </trkpt>
      <trkpt lat="46.86849" lon="-1.01486">
        <ele>109</ele>
        <time>2021-09-04T14:21:11Z</time>
      </trkpt>
      <trkpt lat="46.86891" lon="-1.01497">
        <ele>107</ele>
        <time>2021-09-04T14:21:19Z</time>
      </trkpt>
      <trkpt lat="46.8691" lon="-1.01511">
        <ele>105</ele>
        <time>2021-09-04T14:21:23Z</time>
      </trkpt>
      <trkpt lat="46.86935" lon="-1.01538">
        <ele>103</ele>
        <time>2021-09-04T14:21:28Z</time>
      </trkpt>
      <trkpt lat="46.86982" lon="-1.01575">
        <ele>101</ele>
        <time>2021-09-04T14:21:38Z</time>
      </trkpt>
      <trkpt lat="46.86988" lon="-1.0158">
        <ele>101</ele>
        <time>2021-09-04T14:21:39Z</time>
      </trkpt>
      <trkpt lat="46.87009" lon="-1.01581">
        <ele>102</ele>
        <time>2021-09-04T14:21:43Z</time>
      </trkpt>
      <trkpt lat="46.87008" lon="-1.01592">
        <ele>102</ele>
        <time>2021-09-04T14:21:44Z</time>
      </trkpt>
      <trkpt lat="46.87004" lon="-1.01606">
        <ele>102</ele>
        <time>2021-09-04T14:21:46Z</time>
      </trkpt>
      <trkpt lat="46.87005" lon="-1.01618">
        <ele>102</ele>
        <time>2021-09-04T14:21:47Z</time>
      </trkpt>
      <trkpt lat="46.87017" lon="-1.01625">
        <ele>104</ele>
        <time>2021-09-04T14:21:50Z</time>
      </trkpt>
      <trkpt lat="46.87028" lon="-1.01637">
        <ele>105</ele>
        <time>2021-09-04T14:21:52Z</time>
      </trkpt>
      <trkpt lat="46.87048" lon="-1.01645">
        <ele>107</ele>
        <time>2021-09-04T14:21:56Z</time>
      </trkpt>
      <trkpt lat="46.87053" lon="-1.01643">
        <ele>107</ele>
        <time>2021-09-04T14:21:57Z</time>
      </trkpt>
      <trkpt lat="46.8707" lon="-1.01647">
        <ele>109</ele>
        <time>2021-09-04T14:22:00Z</time>
      </trkpt>
      <trkpt lat="46.87078" lon="-1.0165">
        <ele>110</ele>
        <time>2021-09-04T14:22:01Z</time>
      </trkpt>
      <trkpt lat="46.87084" lon="-1.01655">
        <ele>111</ele>
        <time>2021-09-04T14:22:02Z</time>
      </trkpt>
      <trkpt lat="46.87077" lon="-1.017">
        <ele>110</ele>
        <time>2021-09-04T14:22:08Z</time>
      </trkpt>
      <trkpt lat="46.87079" lon="-1.01701">
        <ele>111</ele>
        <time>2021-09-04T14:22:08Z</time>
      </trkpt>
      <trkpt lat="46.87081" lon="-1.01707">
        <ele>111</ele>
        <time>2021-09-04T14:22:09Z</time>
      </trkpt>
      <trkpt lat="46.87229" lon="-1.01816">
        <ele>113</ele>
        <time>2021-09-04T14:22:39Z</time>
      </trkpt>
      <trkpt lat="46.87393" lon="-1.01939">
        <ele>110</ele>
        <time>2021-09-04T14:23:11Z</time>
      </trkpt>
      <trkpt lat="46.87456" lon="-1.01984">
        <ele>110</ele>
        <time>2021-09-04T14:23:24Z</time>
      </trkpt>
      <trkpt lat="46.87667" lon="-1.02144">
        <ele>116</ele>
        <time>2021-09-04T14:24:06Z</time>
      </trkpt>
      <trkpt lat="46.87685" lon="-1.0215">
        <ele>116</ele>
        <time>2021-09-04T14:24:09Z</time>
      </trkpt>
      <trkpt lat="46.87691" lon="-1.02136">
        <ele>116</ele>
        <time>2021-09-04T14:24:11Z</time>
      </trkpt>
      <trkpt lat="46.87695" lon="-1.02133">
        <ele>116</ele>
        <time>2021-09-04T14:24:12Z</time>
      </trkpt>
      <trkpt lat="46.87704" lon="-1.02136">
        <ele>116</ele>
        <time>2021-09-04T14:24:14Z</time>
      </trkpt>
      <trkpt lat="46.87707" lon="-1.02142">
        <ele>116</ele>
        <time>2021-09-04T14:24:15Z</time>
      </trkpt>
      <trkpt lat="46.87708" lon="-1.02148">
        <ele>116</ele>
        <time>2021-09-04T14:24:16Z</time>
      </trkpt>
      <trkpt lat="46.87704" lon="-1.02165">
        <ele>116</ele>
        <time>2021-09-04T14:24:18Z</time>
      </trkpt>
      <trkpt lat="46.87724" lon="-1.02188">
        <ele>116</ele>
        <time>2021-09-04T14:24:22Z</time>
      </trkpt>
      <trkpt lat="46.88171" lon="-1.02526">
        <ele>119</ele>
        <time>2021-09-04T14:25:52Z</time>
      </trkpt>
      <trkpt lat="46.88173" lon="-1.02521">
        <ele>120</ele>
        <time>2021-09-04T14:25:53Z</time>
      </trkpt>
      <trkpt lat="46.8818" lon="-1.02515">
        <ele>120</ele>
        <time>2021-09-04T14:25:54Z</time>
      </trkpt>
      <trkpt lat="46.88188" lon="-1.02515">
        <ele>120</ele>
        <time>2021-09-04T14:25:55Z</time>
      </trkpt>
      <trkpt lat="46.88192" lon="-1.02518">
        <ele>120</ele>
        <time>2021-09-04T14:25:56Z</time>
      </trkpt>
      <trkpt lat="46.88197" lon="-1.0253">
        <ele>120</ele>
        <time>2021-09-04T14:25:58Z</time>
      </trkpt>
      <trkpt lat="46.88196" lon="-1.02544">
        <ele>119</ele>
        <time>2021-09-04T14:26:00Z</time>
      </trkpt>
      <trkpt lat="46.88692" lon="-1.02919">
        <ele>126</ele>
        <time>2021-09-04T14:27:39Z</time>
      </trkpt>
      <trkpt lat="46.88723" lon="-1.02946">
        <ele>126</ele>
        <time>2021-09-04T14:27:45Z</time>
      </trkpt>
      <trkpt lat="46.8875" lon="-1.02974">
        <ele>125</ele>
        <time>2021-09-04T14:27:51Z</time>
      </trkpt>
      <trkpt lat="46.88769" lon="-1.03">
        <ele>124</ele>
        <time>2021-09-04T14:27:56Z</time>
      </trkpt>
      <trkpt lat="46.88785" lon="-1.03027">
        <ele>123</ele>
        <time>2021-09-04T14:28:00Z</time>
      </trkpt>
      <trkpt lat="46.88803" lon="-1.03063">
        <ele>123</ele>
        <time>2021-09-04T14:28:06Z</time>
      </trkpt>
      <trkpt lat="46.88819" lon="-1.03102">
        <ele>122</ele>
        <time>2021-09-04T14:28:11Z</time>
      </trkpt>
      <trkpt lat="46.88831" lon="-1.0314">
        <ele>122</ele>
        <time>2021-09-04T14:28:16Z</time>
      </trkpt>
      <trkpt lat="46.88873" lon="-1.03117">
        <ele>123</ele>
        <time>2021-09-04T14:28:24Z</time>
      </trkpt>
      <trkpt lat="46.88894" lon="-1.03109">
        <ele>123</ele>
        <time>2021-09-04T14:28:28Z</time>
      </trkpt>
      <trkpt lat="46.88914" lon="-1.03108">
        <ele>123</ele>
        <time>2021-09-04T14:28:32Z</time>
      </trkpt>
      <trkpt lat="46.8894" lon="-1.03113">
        <ele>123</ele>
        <time>2021-09-04T14:28:36Z</time>
      </trkpt>
      <trkpt lat="46.88956" lon="-1.0312">
        <ele>123</ele>
        <time>2021-09-04T14:28:39Z</time>
      </trkpt>
      <trkpt lat="46.88978" lon="-1.03135">
        <ele>123</ele>
        <time>2021-09-04T14:28:44Z</time>
      </trkpt>
      <trkpt lat="46.90116" lon="-1.03991">
        <ele>126</ele>
        <time>2021-09-04T14:32:31Z</time>
      </trkpt>
      <trkpt lat="46.90142" lon="-1.04019">
        <ele>125</ele>
        <time>2021-09-04T14:32:37Z</time>
      </trkpt>
      <trkpt lat="46.90158" lon="-1.04048">
        <ele>123</ele>
        <time>2021-09-04T14:32:42Z</time>
      </trkpt>
      <trkpt lat="46.90172" lon="-1.04084">
        <ele>122</ele>
        <time>2021-09-04T14:32:47Z</time>
      </trkpt>
      <trkpt lat="46.9018" lon="-1.04129">
        <ele>120</ele>
        <time>2021-09-04T14:32:52Z</time>
      </trkpt>
      <trkpt lat="46.90183" lon="-1.04248">
        <ele>118</ele>
        <time>2021-09-04T14:33:07Z</time>
      </trkpt>
      <trkpt lat="46.90188" lon="-1.043">
        <ele>118</ele>
        <time>2021-09-04T14:33:13Z</time>
      </trkpt>
      <trkpt lat="46.90195" lon="-1.04308">
        <ele>118</ele>
        <time>2021-09-04T14:33:15Z</time>
      </trkpt>
      <trkpt lat="46.90198" lon="-1.04316">
        <ele>118</ele>
        <time>2021-09-04T14:33:16Z</time>
      </trkpt>
      <trkpt lat="46.90231" lon="-1.04339">
        <ele>118</ele>
        <time>2021-09-04T14:33:22Z</time>
      </trkpt>
      <trkpt lat="46.90342" lon="-1.04391">
        <ele>120</ele>
        <time>2021-09-04T14:33:43Z</time>
      </trkpt>
      <trkpt lat="46.90409" lon="-1.0442">
        <ele>121</ele>
        <time>2021-09-04T14:33:55Z</time>
      </trkpt>
      <trkpt lat="46.90491" lon="-1.04443">
        <ele>120</ele>
        <time>2021-09-04T14:34:10Z</time>
      </trkpt>
      <trkpt lat="46.90535" lon="-1.0445">
        <ele>121</ele>
        <time>2021-09-04T14:34:18Z</time>
      </trkpt>
      <trkpt lat="46.9058" lon="-1.04454">
        <ele>123</ele>
        <time>2021-09-04T14:34:26Z</time>
      </trkpt>
      <trkpt lat="46.90698" lon="-1.04449">
        <ele>123</ele>
        <time>2021-09-04T14:34:47Z</time>
      </trkpt>
      <trkpt lat="46.90865" lon="-1.04437">
        <ele>120</ele>
        <time>2021-09-04T14:35:17Z</time>
      </trkpt>
      <trkpt lat="46.9091" lon="-1.04436">
        <ele>117</ele>
        <time>2021-09-04T14:35:25Z</time>
      </trkpt>
      <trkpt lat="46.90965" lon="-1.0444">
        <ele>114</ele>
        <time>2021-09-04T14:35:35Z</time>
      </trkpt>
      <trkpt lat="46.90992" lon="-1.04444">
        <ele>112</ele>
        <time>2021-09-04T14:35:40Z</time>
      </trkpt>
      <trkpt lat="46.91055" lon="-1.04461">
        <ele>115</ele>
        <time>2021-09-04T14:35:51Z</time>
      </trkpt>
      <trkpt lat="46.91105" lon="-1.04479">
        <ele>118</ele>
        <time>2021-09-04T14:36:00Z</time>
      </trkpt>
      <trkpt lat="46.91153" lon="-1.04501">
        <ele>121</ele>
        <time>2021-09-04T14:36:09Z</time>
      </trkpt>
      <trkpt lat="46.91185" lon="-1.04517">
        <ele>122</ele>
        <time>2021-09-04T14:36:15Z</time>
      </trkpt>
      <trkpt lat="46.91622" lon="-1.04732">
        <ele>138</ele>
        <time>2021-09-04T14:37:37Z</time>
      </trkpt>
      <trkpt lat="46.91719" lon="-1.04789">
        <ele>142</ele>
        <time>2021-09-04T14:37:56Z</time>
      </trkpt>
      <trkpt lat="46.91797" lon="-1.04831">
        <ele>146</ele>
        <time>2021-09-04T14:38:11Z</time>
      </trkpt>
      <trkpt lat="46.91893" lon="-1.0488">
        <ele>150</ele>
        <time>2021-09-04T14:38:29Z</time>
      </trkpt>
      <trkpt lat="46.9206" lon="-1.0496">
        <ele>155</ele>
        <time>2021-09-04T14:39:00Z</time>
      </trkpt>
      <trkpt lat="46.92188" lon="-1.05024">
        <ele>160</ele>
        <time>2021-09-04T14:39:24Z</time>
      </trkpt>
      <trkpt lat="46.93078" lon="-1.05459">
        <ele>181</ele>
        <time>2021-09-04T14:42:11Z</time>
      </trkpt>
      <trkpt lat="46.93146" lon="-1.05491">
        <ele>181</ele>
        <time>2021-09-04T14:42:24Z</time>
      </trkpt>
      <trkpt lat="46.93149" lon="-1.05482">
        <ele>181</ele>
        <time>2021-09-04T14:42:25Z</time>
      </trkpt>
      <trkpt lat="46.93154" lon="-1.05476">
        <ele>181</ele>
        <time>2021-09-04T14:42:26Z</time>
      </trkpt>
      <trkpt lat="46.9316" lon="-1.05472">
        <ele>182</ele>
        <time>2021-09-04T14:42:27Z</time>
      </trkpt>
      <trkpt lat="46.93166" lon="-1.05471">
        <ele>182</ele>
        <time>2021-09-04T14:42:28Z</time>
      </trkpt>
      <trkpt lat="46.93173" lon="-1.05472">
        <ele>182</ele>
        <time>2021-09-04T14:42:30Z</time>
      </trkpt>
      <trkpt lat="46.93179" lon="-1.05477">
        <ele>182</ele>
        <time>2021-09-04T14:42:31Z</time>
      </trkpt>
      <trkpt lat="46.93184" lon="-1.05484">
        <ele>182</ele>
        <time>2021-09-04T14:42:32Z</time>
      </trkpt>
      <trkpt lat="46.93186" lon="-1.05493">
        <ele>182</ele>
        <time>2021-09-04T14:42:33Z</time>
      </trkpt>
      <trkpt lat="46.93187" lon="-1.05503">
        <ele>182</ele>
        <time>2021-09-04T14:42:34Z</time>
      </trkpt>
      <trkpt lat="46.93186" lon="-1.05513">
        <ele>181</ele>
        <time>2021-09-04T14:42:36Z</time>
      </trkpt>
      <trkpt lat="46.9318" lon="-1.05526">
        <ele>180</ele>
        <time>2021-09-04T14:42:37Z</time>
      </trkpt>
      <trkpt lat="46.93169" lon="-1.05533">
        <ele>180</ele>
        <time>2021-09-04T14:42:40Z</time>
      </trkpt>
      <trkpt lat="46.93162" lon="-1.05533">
        <ele>179</ele>
        <time>2021-09-04T14:42:41Z</time>
      </trkpt>
      <trkpt lat="46.93155" lon="-1.05529">
        <ele>179</ele>
        <time>2021-09-04T14:42:42Z</time>
      </trkpt>
      <trkpt lat="46.9315" lon="-1.05523">
        <ele>179</ele>
        <time>2021-09-04T14:42:43Z</time>
      </trkpt>
      <trkpt lat="46.93116" lon="-1.05579">
        <ele>174</ele>
        <time>2021-09-04T14:42:52Z</time>
      </trkpt>
      <trkpt lat="46.93099" lon="-1.05612">
        <ele>172</ele>
        <time>2021-09-04T14:42:57Z</time>
      </trkpt>
      <trkpt lat="46.93085" lon="-1.05644">
        <ele>171</ele>
        <time>2021-09-04T14:43:02Z</time>
      </trkpt>
      <trkpt lat="46.93064" lon="-1.05715">
        <ele>168</ele>
        <time>2021-09-04T14:43:11Z</time>
      </trkpt>
      <trkpt lat="46.93053" lon="-1.05781">
        <ele>163</ele>
        <time>2021-09-04T14:43:20Z</time>
      </trkpt>
      <trkpt lat="46.93052" lon="-1.05812">
        <ele>161</ele>
        <time>2021-09-04T14:43:24Z</time>
      </trkpt>
      <trkpt lat="46.93051" lon="-1.05844">
        <ele>160</ele>
        <time>2021-09-04T14:43:27Z</time>
      </trkpt>
      <trkpt lat="46.93057" lon="-1.05909">
        <ele>160</ele>
        <time>2021-09-04T14:43:35Z</time>
      </trkpt>
      <trkpt lat="46.93064" lon="-1.05953">
        <ele>161</ele>
        <time>2021-09-04T14:43:41Z</time>
      </trkpt>
      <trkpt lat="46.93109" lon="-1.06154">
        <ele>159</ele>
        <time>2021-09-04T14:44:07Z</time>
      </trkpt>
      <trkpt lat="46.93335" lon="-1.0713">
        <ele>130</ele>
        <time>2021-09-04T14:46:12Z</time>
      </trkpt>
      <trkpt lat="46.93347" lon="-1.07171">
        <ele>129</ele>
        <time>2021-09-04T14:46:17Z</time>
      </trkpt>
      <trkpt lat="46.93365" lon="-1.0722">
        <ele>129</ele>
        <time>2021-09-04T14:46:24Z</time>
      </trkpt>
      <trkpt lat="46.93391" lon="-1.07276">
        <ele>130</ele>
        <time>2021-09-04T14:46:32Z</time>
      </trkpt>
      <trkpt lat="46.93416" lon="-1.07318">
        <ele>130</ele>
        <time>2021-09-04T14:46:39Z</time>
      </trkpt>
      <trkpt lat="46.93444" lon="-1.07357">
        <ele>130</ele>
        <time>2021-09-04T14:46:46Z</time>
      </trkpt>
      <trkpt lat="46.93484" lon="-1.07407">
        <ele>131</ele>
        <time>2021-09-04T14:46:55Z</time>
      </trkpt>
      <trkpt lat="46.93658" lon="-1.07594">
        <ele>126</ele>
        <time>2021-09-04T14:47:34Z</time>
      </trkpt>
      <trkpt lat="46.9369" lon="-1.07637">
        <ele>125</ele>
        <time>2021-09-04T14:47:41Z</time>
      </trkpt>
      <trkpt lat="46.93713" lon="-1.07657">
        <ele>125</ele>
        <time>2021-09-04T14:47:46Z</time>
      </trkpt>
      <trkpt lat="46.93722" lon="-1.07656">
        <ele>125</ele>
        <time>2021-09-04T14:47:48Z</time>
      </trkpt>
      <trkpt lat="46.9373" lon="-1.07658">
        <ele>125</ele>
        <time>2021-09-04T14:47:49Z</time>
      </trkpt>
      <trkpt lat="46.93738" lon="-1.07668">
        <ele>125</ele>
        <time>2021-09-04T14:47:51Z</time>
      </trkpt>
      <trkpt lat="46.93741" lon="-1.07675">
        <ele>125</ele>
        <time>2021-09-04T14:47:52Z</time>
      </trkpt>
      <trkpt lat="46.93743" lon="-1.07691">
        <ele>124</ele>
        <time>2021-09-04T14:47:54Z</time>
      </trkpt>
      <trkpt lat="46.9375" lon="-1.07712">
        <ele>124</ele>
        <time>2021-09-04T14:47:57Z</time>
      </trkpt>
      <trkpt lat="46.93766" lon="-1.07734">
        <ele>124</ele>
        <time>2021-09-04T14:48:01Z</time>
      </trkpt>
      <trkpt lat="46.93971" lon="-1.07929">
        <ele>124</ele>
        <time>2021-09-04T14:48:44Z</time>
      </trkpt>
      <trkpt lat="46.94014" lon="-1.07962">
        <ele>125</ele>
        <time>2021-09-04T14:48:53Z</time>
      </trkpt>
      <trkpt lat="46.94053" lon="-1.07983">
        <ele>126</ele>
        <time>2021-09-04T14:49:00Z</time>
      </trkpt>
      <trkpt lat="46.94074" lon="-1.07992">
        <ele>126</ele>
        <time>2021-09-04T14:49:04Z</time>
      </trkpt>
      <trkpt lat="46.94103" lon="-1.07999">
        <ele>126</ele>
        <time>2021-09-04T14:49:09Z</time>
      </trkpt>
      <trkpt lat="46.9424" lon="-1.08003">
        <ele>128</ele>
        <time>2021-09-04T14:49:34Z</time>
      </trkpt>
      <trkpt lat="46.948" lon="-1.08008">
        <ele>123</ele>
        <time>2021-09-04T14:51:13Z</time>
      </trkpt>
      <trkpt lat="46.94995" lon="-1.08006">
        <ele>120</ele>
        <time>2021-09-04T14:51:48Z</time>
      </trkpt>
      <trkpt lat="46.95026" lon="-1.08001">
        <ele>120</ele>
        <time>2021-09-04T14:51:54Z</time>
      </trkpt>
      <trkpt lat="46.95064" lon="-1.07988">
        <ele>120</ele>
        <time>2021-09-04T14:52:01Z</time>
      </trkpt>
      <trkpt lat="46.9514" lon="-1.07954">
        <ele>120</ele>
        <time>2021-09-04T14:52:15Z</time>
      </trkpt>
      <trkpt lat="46.95139" lon="-1.07948">
        <ele>120</ele>
        <time>2021-09-04T14:52:15Z</time>
      </trkpt>
      <trkpt lat="46.95141" lon="-1.07936">
        <ele>120</ele>
        <time>2021-09-04T14:52:17Z</time>
      </trkpt>
      <trkpt lat="46.95148" lon="-1.07928">
        <ele>120</ele>
        <time>2021-09-04T14:52:19Z</time>
      </trkpt>
      <trkpt lat="46.95157" lon="-1.07927">
        <ele>120</ele>
        <time>2021-09-04T14:52:20Z</time>
      </trkpt>
      <trkpt lat="46.95161" lon="-1.07929">
        <ele>120</ele>
        <time>2021-09-04T14:52:21Z</time>
      </trkpt>
      <trkpt lat="46.95167" lon="-1.0794">
        <ele>120</ele>
        <time>2021-09-04T14:52:23Z</time>
      </trkpt>
      <trkpt lat="46.95168" lon="-1.07952">
        <ele>120</ele>
        <time>2021-09-04T14:52:24Z</time>
      </trkpt>
      <trkpt lat="46.95164" lon="-1.07964">
        <ele>120</ele>
        <time>2021-09-04T14:52:26Z</time>
      </trkpt>
      <trkpt lat="46.95161" lon="-1.07967">
        <ele>120</ele>
        <time>2021-09-04T14:52:26Z</time>
      </trkpt>
      <trkpt lat="46.95423" lon="-1.08704">
        <ele>124</ele>
        <time>2021-09-04T14:54:07Z</time>
      </trkpt>
      <trkpt lat="46.95476" lon="-1.08855">
        <ele>122</ele>
        <time>2021-09-04T14:54:28Z</time>
      </trkpt>
      <trkpt lat="46.9551" lon="-1.0896">
        <ele>120</ele>
        <time>2021-09-04T14:54:42Z</time>
      </trkpt>
      <trkpt lat="46.9559" lon="-1.093">
        <ele>111</ele>
        <time>2021-09-04T14:55:26Z</time>
      </trkpt>
      <trkpt lat="46.95792" lon="-1.10194">
        <ele>102</ele>
        <time>2021-09-04T14:57:20Z</time>
      </trkpt>
      <trkpt lat="46.95924" lon="-1.10766">
        <ele>106</ele>
        <time>2021-09-04T14:58:33Z</time>
      </trkpt>
      <trkpt lat="46.95964" lon="-1.10949">
        <ele>110</ele>
        <time>2021-09-04T14:58:57Z</time>
      </trkpt>
      <trkpt lat="46.96004" lon="-1.11124">
        <ele>112</ele>
        <time>2021-09-04T14:59:19Z</time>
      </trkpt>
      <trkpt lat="46.96009" lon="-1.11153">
        <ele>112</ele>
        <time>2021-09-04T14:59:23Z</time>
      </trkpt>
      <trkpt lat="46.96017" lon="-1.11155">
        <ele>111</ele>
        <time>2021-09-04T14:59:24Z</time>
      </trkpt>
      <trkpt lat="46.9602" lon="-1.11163">
        <ele>111</ele>
        <time>2021-09-04T14:59:25Z</time>
      </trkpt>
      <trkpt lat="46.9602" lon="-1.11171">
        <ele>111</ele>
        <time>2021-09-04T14:59:26Z</time>
      </trkpt>
      <trkpt lat="46.96018" lon="-1.11175">
        <ele>111</ele>
        <time>2021-09-04T14:59:27Z</time>
      </trkpt>
      <trkpt lat="46.96013" lon="-1.11179">
        <ele>111</ele>
        <time>2021-09-04T14:59:28Z</time>
      </trkpt>
      <trkpt lat="46.96023" lon="-1.11206">
        <ele>111</ele>
        <time>2021-09-04T14:59:32Z</time>
      </trkpt>
      <trkpt lat="46.96062" lon="-1.11346">
        <ele>111</ele>
        <time>2021-09-04T14:59:50Z</time>
      </trkpt>
      <trkpt lat="46.96076" lon="-1.11387">
        <ele>111</ele>
        <time>2021-09-04T14:59:56Z</time>
      </trkpt>
      <trkpt lat="46.96093" lon="-1.11426">
        <ele>111</ele>
        <time>2021-09-04T15:00:01Z</time>
      </trkpt>
      <trkpt lat="46.96124" lon="-1.11491">
        <ele>110</ele>
        <time>2021-09-04T15:00:11Z</time>
      </trkpt>
      <trkpt lat="46.96109" lon="-1.11518">
        <ele>110</ele>
        <time>2021-09-04T15:00:15Z</time>
      </trkpt>
      <trkpt lat="46.96108" lon="-1.11535">
        <ele>109</ele>
        <time>2021-09-04T15:00:17Z</time>
      </trkpt>
      <trkpt lat="46.96113" lon="-1.11577">
        <ele>109</ele>
        <time>2021-09-04T15:00:22Z</time>
      </trkpt>
      <trkpt lat="46.96152" lon="-1.11822">
        <ele>107</ele>
        <time>2021-09-04T15:00:53Z</time>
      </trkpt>
      <trkpt lat="46.96154" lon="-1.11851">
        <ele>107</ele>
        <time>2021-09-04T15:00:56Z</time>
      </trkpt>
      <trkpt lat="46.96147" lon="-1.11961">
        <ele>106</ele>
        <time>2021-09-04T15:01:10Z</time>
      </trkpt>
      <trkpt lat="46.96145" lon="-1.12018">
        <ele>106</ele>
        <time>2021-09-04T15:01:17Z</time>
      </trkpt>
      <trkpt lat="46.96146" lon="-1.12033">
        <ele>106</ele>
        <time>2021-09-04T15:01:19Z</time>
      </trkpt>
      <trkpt lat="46.96152" lon="-1.12031">
        <ele>106</ele>
        <time>2021-09-04T15:01:20Z</time>
      </trkpt>
      <trkpt lat="46.96154" lon="-1.12047">
        <ele>106</ele>
        <time>2021-09-04T15:01:22Z</time>
      </trkpt>
      <trkpt lat="46.96152" lon="-1.12191">
        <ele>105</ele>
        <time>2021-09-04T15:01:39Z</time>
      </trkpt>
      <trkpt lat="46.96145" lon="-1.12543">
        <ele>102</ele>
        <time>2021-09-04T15:02:22Z</time>
      </trkpt>
      <trkpt lat="46.96143" lon="-1.1262">
        <ele>101</ele>
        <time>2021-09-04T15:02:31Z</time>
      </trkpt>
      <trkpt lat="46.96136" lon="-1.12705">
        <ele>101</ele>
        <time>2021-09-04T15:02:42Z</time>
      </trkpt>
      <trkpt lat="46.96142" lon="-1.12708">
        <ele>101</ele>
        <time>2021-09-04T15:02:43Z</time>
      </trkpt>
      <trkpt lat="46.96145" lon="-1.12716">
        <ele>101</ele>
        <time>2021-09-04T15:02:44Z</time>
      </trkpt>
      <trkpt lat="46.96146" lon="-1.12721">
        <ele>101</ele>
        <time>2021-09-04T15:02:45Z</time>
      </trkpt>
      <trkpt lat="46.96143" lon="-1.12729">
        <ele>101</ele>
        <time>2021-09-04T15:02:46Z</time>
      </trkpt>
      <trkpt lat="46.96137" lon="-1.12734">
        <ele>101</ele>
        <time>2021-09-04T15:02:47Z</time>
      </trkpt>
      <trkpt lat="46.96134" lon="-1.12734">
        <ele>101</ele>
        <time>2021-09-04T15:02:47Z</time>
      </trkpt>
      <trkpt lat="46.9601" lon="-1.14217">
        <ele>100</ele>
        <time>2021-09-04T15:05:49Z</time>
      </trkpt>
      <trkpt lat="46.96005" lon="-1.14344">
        <ele>101</ele>
        <time>2021-09-04T15:06:04Z</time>
      </trkpt>
      <trkpt lat="46.95983" lon="-1.16528">
        <ele>90</ele>
        <time>2021-09-04T15:10:30Z</time>
      </trkpt>
      <trkpt lat="46.95981" lon="-1.16618">
        <ele>92</ele>
        <time>2021-09-04T15:10:40Z</time>
      </trkpt>
      <trkpt lat="46.95976" lon="-1.16665">
        <ele>92</ele>
        <time>2021-09-04T15:10:46Z</time>
      </trkpt>
      <trkpt lat="46.95971" lon="-1.16688">
        <ele>92</ele>
        <time>2021-09-04T15:10:49Z</time>
      </trkpt>
      <trkpt lat="46.9596" lon="-1.16722">
        <ele>92</ele>
        <time>2021-09-04T15:10:54Z</time>
      </trkpt>
      <trkpt lat="46.95952" lon="-1.1674">
        <ele>92</ele>
        <time>2021-09-04T15:10:56Z</time>
      </trkpt>
      <trkpt lat="46.95929" lon="-1.16777">
        <ele>91</ele>
        <time>2021-09-04T15:11:02Z</time>
      </trkpt>
      <trkpt lat="46.95783" lon="-1.16973">
        <ele>93</ele>
        <time>2021-09-04T15:11:38Z</time>
      </trkpt>
      <trkpt lat="46.95763" lon="-1.17004">
        <ele>92</ele>
        <time>2021-09-04T15:11:43Z</time>
      </trkpt>
      <trkpt lat="46.95665" lon="-1.17196">
        <ele>91</ele>
        <time>2021-09-04T15:12:12Z</time>
      </trkpt>
      <trkpt lat="46.95648" lon="-1.17227">
        <ele>91</ele>
        <time>2021-09-04T15:12:17Z</time>
      </trkpt>
      <trkpt lat="46.95636" lon="-1.17243">
        <ele>91</ele>
        <time>2021-09-04T15:12:20Z</time>
      </trkpt>
      <trkpt lat="46.95621" lon="-1.17262">
        <ele>91</ele>
        <time>2021-09-04T15:12:23Z</time>
      </trkpt>
      <trkpt lat="46.95361" lon="-1.17508">
        <ele>85</ele>
        <time>2021-09-04T15:13:18Z</time>
      </trkpt>
      <trkpt lat="46.95347" lon="-1.17525">
        <ele>84</ele>
        <time>2021-09-04T15:13:22Z</time>
      </trkpt>
      <trkpt lat="46.95336" lon="-1.17541">
        <ele>84</ele>
        <time>2021-09-04T15:13:24Z</time>
      </trkpt>
      <trkpt lat="46.95307" lon="-1.17604">
        <ele>84</ele>
        <time>2021-09-04T15:13:33Z</time>
      </trkpt>
      <trkpt lat="46.95062" lon="-1.1815">
        <ele>77</ele>
        <time>2021-09-04T15:14:53Z</time>
      </trkpt>
      <trkpt lat="46.95052" lon="-1.18183">
        <ele>77</ele>
        <time>2021-09-04T15:14:57Z</time>
      </trkpt>
      <trkpt lat="46.95045" lon="-1.18213">
        <ele>77</ele>
        <time>2021-09-04T15:15:01Z</time>
      </trkpt>
      <trkpt lat="46.95002" lon="-1.18444">
        <ele>81</ele>
        <time>2021-09-04T15:15:30Z</time>
      </trkpt>
      <trkpt lat="46.94989" lon="-1.18518">
        <ele>81</ele>
        <time>2021-09-04T15:15:39Z</time>
      </trkpt>
      <trkpt lat="46.94986" lon="-1.18542">
        <ele>80</ele>
        <time>2021-09-04T15:15:42Z</time>
      </trkpt>
      <trkpt lat="46.94986" lon="-1.18579">
        <ele>79</ele>
        <time>2021-09-04T15:15:47Z</time>
      </trkpt>
      <trkpt lat="46.94976" lon="-1.18841">
        <ele>77</ele>
        <time>2021-09-04T15:16:19Z</time>
      </trkpt>
      <trkpt lat="46.94979" lon="-1.18863">
        <ele>77</ele>
        <time>2021-09-04T15:16:22Z</time>
      </trkpt>
      <trkpt lat="46.94989" lon="-1.18895">
        <ele>78</ele>
        <time>2021-09-04T15:16:26Z</time>
      </trkpt>
      <trkpt lat="46.94996" lon="-1.18909">
        <ele>78</ele>
        <time>2021-09-04T15:16:28Z</time>
      </trkpt>
      <trkpt lat="46.95022" lon="-1.1895">
        <ele>78</ele>
        <time>2021-09-04T15:16:35Z</time>
      </trkpt>
      <trkpt lat="46.95034" lon="-1.18971">
        <ele>79</ele>
        <time>2021-09-04T15:16:38Z</time>
      </trkpt>
      <trkpt lat="46.95041" lon="-1.18986">
        <ele>79</ele>
        <time>2021-09-04T15:16:40Z</time>
      </trkpt>
      <trkpt lat="46.95045" lon="-1.19007">
        <ele>79</ele>
        <time>2021-09-04T15:16:43Z</time>
      </trkpt>
      <trkpt lat="46.95045" lon="-1.19016">
        <ele>79</ele>
        <time>2021-09-04T15:16:44Z</time>
      </trkpt>
      <trkpt lat="46.95042" lon="-1.19024">
        <ele>79</ele>
        <time>2021-09-04T15:16:45Z</time>
      </trkpt>
      <trkpt lat="46.95038" lon="-1.19029">
        <ele>79</ele>
        <time>2021-09-04T15:16:46Z</time>
      </trkpt>
      <trkpt lat="46.94997" lon="-1.19051">
        <ele>80</ele>
        <time>2021-09-04T15:16:54Z</time>
      </trkpt>
      <trkpt lat="46.94945" lon="-1.19058">
        <ele>80</ele>
        <time>2021-09-04T15:17:03Z</time>
      </trkpt>
      <trkpt lat="46.94921" lon="-1.1907">
        <ele>81</ele>
        <time>2021-09-04T15:17:08Z</time>
      </trkpt>
      <trkpt lat="46.94905" lon="-1.19072">
        <ele>80</ele>
        <time>2021-09-04T15:17:10Z</time>
      </trkpt>
      <trkpt lat="46.94884" lon="-1.1907">
        <ele>78</ele>
        <time>2021-09-04T15:17:14Z</time>
      </trkpt>
      <trkpt lat="46.94877" lon="-1.19066">
        <ele>78</ele>
        <time>2021-09-04T15:17:16Z</time>
      </trkpt>
      <trkpt lat="46.9486" lon="-1.19103">
        <ele>77</ele>
        <time>2021-09-04T15:17:21Z</time>
      </trkpt>
      <trkpt lat="46.94839" lon="-1.19203">
        <ele>75</ele>
        <time>2021-09-04T15:17:34Z</time>
      </trkpt>
      <trkpt lat="46.94828" lon="-1.19293">
        <ele>76</ele>
        <time>2021-09-04T15:17:45Z</time>
      </trkpt>
      <trkpt lat="46.94818" lon="-1.193">
        <ele>76</ele>
        <time>2021-09-04T15:17:47Z</time>
      </trkpt>
      <trkpt lat="46.94817" lon="-1.19379">
        <ele>76</ele>
        <time>2021-09-04T15:17:56Z</time>
      </trkpt>
      <trkpt lat="46.94812" lon="-1.19477">
        <ele>78</ele>
        <time>2021-09-04T15:18:08Z</time>
      </trkpt>
      <trkpt lat="46.94819" lon="-1.19482">
        <ele>78</ele>
        <time>2021-09-04T15:18:10Z</time>
      </trkpt>
      <trkpt lat="46.94821" lon="-1.19495">
        <ele>78</ele>
        <time>2021-09-04T15:18:11Z</time>
      </trkpt>
      <trkpt lat="46.94817" lon="-1.19502">
        <ele>78</ele>
        <time>2021-09-04T15:18:12Z</time>
      </trkpt>
      <trkpt lat="46.94822" lon="-1.19514">
        <ele>78</ele>
        <time>2021-09-04T15:18:14Z</time>
      </trkpt>
      <trkpt lat="46.9486" lon="-1.19687">
        <ele>80</ele>
        <time>2021-09-04T15:18:36Z</time>
      </trkpt>
      <trkpt lat="46.95342" lon="-1.21835">
        <ele>78</ele>
        <time>2021-09-04T15:23:11Z</time>
      </trkpt>
      <trkpt lat="46.95533" lon="-1.22562">
        <ele>77</ele>
        <time>2021-09-04T15:24:45Z</time>
      </trkpt>
      <trkpt lat="46.95731" lon="-1.23289">
        <ele>71</ele>
        <time>2021-09-04T15:26:20Z</time>
      </trkpt>
      <trkpt lat="46.95747" lon="-1.23359">
        <ele>72</ele>
        <time>2021-09-04T15:26:29Z</time>
      </trkpt>
      <trkpt lat="46.95757" lon="-1.23415">
        <ele>73</ele>
        <time>2021-09-04T15:26:36Z</time>
      </trkpt>
      <trkpt lat="46.95768" lon="-1.23505">
        <ele>73</ele>
        <time>2021-09-04T15:26:48Z</time>
      </trkpt>
      <trkpt lat="46.95776" lon="-1.23645">
        <ele>72</ele>
        <time>2021-09-04T15:27:05Z</time>
      </trkpt>
      <trkpt lat="46.95824" lon="-1.24769">
        <ele>70</ele>
        <time>2021-09-04T15:29:21Z</time>
      </trkpt>
      <trkpt lat="46.95832" lon="-1.24863">
        <ele>69</ele>
        <time>2021-09-04T15:29:33Z</time>
      </trkpt>
      <trkpt lat="46.95845" lon="-1.24943">
        <ele>69</ele>
        <time>2021-09-04T15:29:43Z</time>
      </trkpt>
      <trkpt lat="46.95872" lon="-1.25066">
        <ele>71</ele>
        <time>2021-09-04T15:29:59Z</time>
      </trkpt>
      <trkpt lat="46.95879" lon="-1.25066">
        <ele>70</ele>
        <time>2021-09-04T15:30:00Z</time>
      </trkpt>
      <trkpt lat="46.95882" lon="-1.25068">
        <ele>70</ele>
        <time>2021-09-04T15:30:00Z</time>
      </trkpt>
      <trkpt lat="46.95887" lon="-1.25076">
        <ele>71</ele>
        <time>2021-09-04T15:30:02Z</time>
      </trkpt>
      <trkpt lat="46.95893" lon="-1.25073">
        <ele>70</ele>
        <time>2021-09-04T15:30:03Z</time>
      </trkpt>
      <trkpt lat="46.9591" lon="-1.2507">
        <ele>70</ele>
        <time>2021-09-04T15:30:06Z</time>
      </trkpt>
      <trkpt lat="46.96032" lon="-1.25059">
        <ele>69</ele>
        <time>2021-09-04T15:30:28Z</time>
      </trkpt>
      <trkpt lat="46.96121" lon="-1.25049">
        <ele>68</ele>
        <time>2021-09-04T15:30:44Z</time>
      </trkpt>
      <trkpt lat="46.9614" lon="-1.25048">
        <ele>67</ele>
        <time>2021-09-04T15:30:47Z</time>
      </trkpt>
      <trkpt lat="46.96176" lon="-1.25053">
        <ele>67</ele>
        <time>2021-09-04T15:30:53Z</time>
      </trkpt>
      <trkpt lat="46.96186" lon="-1.25061">
        <ele>67</ele>
        <time>2021-09-04T15:30:55Z</time>
      </trkpt>
      <trkpt lat="46.96189" lon="-1.25058">
        <ele>67</ele>
        <time>2021-09-04T15:30:56Z</time>
      </trkpt>
      <trkpt lat="46.96193" lon="-1.25061">
        <ele>67</ele>
        <time>2021-09-04T15:30:57Z</time>
      </trkpt>
      <trkpt lat="46.96202" lon="-1.25055">
        <ele>67</ele>
        <time>2021-09-04T15:30:59Z</time>
      </trkpt>
      <trkpt lat="46.96267" lon="-1.2505">
        <ele>66</ele>
        <time>2021-09-04T15:31:10Z</time>
      </trkpt>
      <trkpt lat="46.96324" lon="-1.25039">
        <ele>66</ele>
        <time>2021-09-04T15:31:20Z</time>
      </trkpt>
      <trkpt lat="46.96371" lon="-1.2504">
        <ele>67</ele>
        <time>2021-09-04T15:31:29Z</time>
      </trkpt>
      <trkpt lat="46.96391" lon="-1.25037">
        <ele>68</ele>
        <time>2021-09-04T15:31:32Z</time>
      </trkpt>
      <trkpt lat="46.96421" lon="-1.25019">
        <ele>68</ele>
        <time>2021-09-04T15:31:38Z</time>
      </trkpt>
      <trkpt lat="46.96487" lon="-1.24966">
        <ele>68</ele>
        <time>2021-09-04T15:31:51Z</time>
      </trkpt>
      <trkpt lat="46.96502" lon="-1.24968">
        <ele>68</ele>
        <time>2021-09-04T15:31:54Z</time>
      </trkpt>
      <trkpt lat="46.96516" lon="-1.24979">
        <ele>68</ele>
        <time>2021-09-04T15:31:57Z</time>
      </trkpt>
      <trkpt lat="46.9652" lon="-1.24976">
        <ele>68</ele>
        <time>2021-09-04T15:31:58Z</time>
      </trkpt>
      <trkpt lat="46.96523" lon="-1.24971">
        <ele>68</ele>
        <time>2021-09-04T15:31:59Z</time>
      </trkpt>
      <trkpt lat="46.96527" lon="-1.24971">
        <ele>68</ele>
        <time>2021-09-04T15:31:59Z</time>
      </trkpt>
      <trkpt lat="46.96597" lon="-1.24884">
        <ele>67</ele>
        <time>2021-09-04T15:32:16Z</time>
      </trkpt>
      <trkpt lat="46.96616" lon="-1.24857">
        <ele>67</ele>
        <time>2021-09-04T15:32:20Z</time>
      </trkpt>
      <trkpt lat="46.96639" lon="-1.24823">
        <ele>66</ele>
        <time>2021-09-04T15:32:26Z</time>
      </trkpt>
      <trkpt lat="46.96687" lon="-1.24742">
        <ele>64</ele>
        <time>2021-09-04T15:32:39Z</time>
      </trkpt>
      <trkpt lat="46.96744" lon="-1.24651">
        <ele>62</ele>
        <time>2021-09-04T15:32:54Z</time>
      </trkpt>
      <trkpt lat="46.96766" lon="-1.24611">
        <ele>63</ele>
        <time>2021-09-04T15:33:00Z</time>
      </trkpt>
      <trkpt lat="46.96789" lon="-1.24589">
        <ele>63</ele>
        <time>2021-09-04T15:33:05Z</time>
      </trkpt>
      <trkpt lat="46.9679" lon="-1.24577">
        <ele>64</ele>
        <time>2021-09-04T15:33:07Z</time>
      </trkpt>
      <trkpt lat="46.96797" lon="-1.2457">
        <ele>64</ele>
        <time>2021-09-04T15:33:08Z</time>
      </trkpt>
      <trkpt lat="46.96805" lon="-1.24572">
        <ele>64</ele>
        <time>2021-09-04T15:33:10Z</time>
      </trkpt>
      <trkpt lat="46.96809" lon="-1.24579">
        <ele>64</ele>
        <time>2021-09-04T15:33:11Z</time>
      </trkpt>
      <trkpt lat="46.96826" lon="-1.24576">
        <ele>64</ele>
        <time>2021-09-04T15:33:14Z</time>
      </trkpt>
      <trkpt lat="46.96837" lon="-1.24576">
        <ele>64</ele>
        <time>2021-09-04T15:33:16Z</time>
      </trkpt>
      <trkpt lat="46.96979" lon="-1.24608">
        <ele>61</ele>
        <time>2021-09-04T15:33:41Z</time>
      </trkpt>
      <trkpt lat="46.97007" lon="-1.24611">
        <ele>61</ele>
        <time>2021-09-04T15:33:46Z</time>
      </trkpt>
      <trkpt lat="46.9704" lon="-1.24606">
        <ele>62</ele>
        <time>2021-09-04T15:33:52Z</time>
      </trkpt>
      <trkpt lat="46.97078" lon="-1.2459">
        <ele>64</ele>
        <time>2021-09-04T15:33:59Z</time>
      </trkpt>
      <trkpt lat="46.97094" lon="-1.2458">
        <ele>64</ele>
        <time>2021-09-04T15:34:02Z</time>
      </trkpt>
      <trkpt lat="46.97115" lon="-1.24563">
        <ele>65</ele>
        <time>2021-09-04T15:34:07Z</time>
      </trkpt>
      <trkpt lat="46.97376" lon="-1.2429">
        <ele>67</ele>
        <time>2021-09-04T15:35:04Z</time>
      </trkpt>
      <trkpt lat="46.97438" lon="-1.24229">
        <ele>68</ele>
        <time>2021-09-04T15:35:17Z</time>
      </trkpt>
      <trkpt lat="46.97462" lon="-1.24212">
        <ele>68</ele>
        <time>2021-09-04T15:35:22Z</time>
      </trkpt>
      <trkpt lat="46.97572" lon="-1.2418">
        <ele>68</ele>
        <time>2021-09-04T15:35:42Z</time>
      </trkpt>
      <trkpt lat="46.97793" lon="-1.24126">
        <ele>65</ele>
        <time>2021-09-04T15:36:22Z</time>
      </trkpt>
      <trkpt lat="46.97857" lon="-1.24106">
        <ele>64</ele>
        <time>2021-09-04T15:36:33Z</time>
      </trkpt>
      <trkpt lat="46.97872" lon="-1.241">
        <ele>63</ele>
        <time>2021-09-04T15:36:36Z</time>
      </trkpt>
      <trkpt lat="46.97883" lon="-1.24091">
        <ele>63</ele>
        <time>2021-09-04T15:36:38Z</time>
      </trkpt>
      <trkpt lat="46.97894" lon="-1.2408">
        <ele>63</ele>
        <time>2021-09-04T15:36:41Z</time>
      </trkpt>
      <trkpt lat="46.9791" lon="-1.24056">
        <ele>62</ele>
        <time>2021-09-04T15:36:45Z</time>
      </trkpt>
      <trkpt lat="46.98" lon="-1.23867">
        <ele>60</ele>
        <time>2021-09-04T15:37:13Z</time>
      </trkpt>
      <trkpt lat="46.98015" lon="-1.23841">
        <ele>61</ele>
        <time>2021-09-04T15:37:17Z</time>
      </trkpt>
      <trkpt lat="46.98195" lon="-1.23536">
        <ele>69</ele>
        <time>2021-09-04T15:38:06Z</time>
      </trkpt>
      <trkpt lat="46.98283" lon="-1.23391">
        <ele>65</ele>
        <time>2021-09-04T15:38:29Z</time>
      </trkpt>
      <trkpt lat="46.9833" lon="-1.233">
        <ele>63</ele>
        <time>2021-09-04T15:38:43Z</time>
      </trkpt>
      <trkpt lat="46.9834" lon="-1.23276">
        <ele>64</ele>
        <time>2021-09-04T15:38:47Z</time>
      </trkpt>
      <trkpt lat="46.98385" lon="-1.2315">
        <ele>65</ele>
        <time>2021-09-04T15:39:04Z</time>
      </trkpt>
      <trkpt lat="46.98397" lon="-1.23126">
        <ele>65</ele>
        <time>2021-09-04T15:39:07Z</time>
      </trkpt>
      <trkpt lat="46.984" lon="-1.23122">
        <ele>65</ele>
        <time>2021-09-04T15:39:08Z</time>
      </trkpt>
      <trkpt lat="46.98404" lon="-1.23121">
        <ele>66</ele>
        <time>2021-09-04T15:39:09Z</time>
      </trkpt>
      <trkpt lat="46.98404" lon="-1.23116">
        <ele>66</ele>
        <time>2021-09-04T15:39:10Z</time>
      </trkpt>
      <trkpt lat="46.98409" lon="-1.23112">
        <ele>66</ele>
        <time>2021-09-04T15:39:11Z</time>
      </trkpt>
      <trkpt lat="46.98411" lon="-1.23095">
        <ele>66</ele>
        <time>2021-09-04T15:39:13Z</time>
      </trkpt>
      <trkpt lat="46.9841" lon="-1.23085">
        <ele>66</ele>
        <time>2021-09-04T15:39:14Z</time>
      </trkpt>
      <trkpt lat="46.98408" lon="-1.23074">
        <ele>66</ele>
        <time>2021-09-04T15:39:15Z</time>
      </trkpt>
      <trkpt lat="46.98398" lon="-1.23064">
        <ele>65</ele>
        <time>2021-09-04T15:39:17Z</time>
      </trkpt>
      <trkpt lat="46.98377" lon="-1.23062">
        <ele>65</ele>
        <time>2021-09-04T15:39:21Z</time>
      </trkpt>
      <trkpt lat="46.98373" lon="-1.23058">
        <ele>65</ele>
        <time>2021-09-04T15:39:22Z</time>
      </trkpt>
      <trkpt lat="46.98366" lon="-1.23029">
        <ele>65</ele>
        <time>2021-09-04T15:39:26Z</time>
      </trkpt>
      <trkpt lat="46.98363" lon="-1.23007">
        <ele>65</ele>
        <time>2021-09-04T15:39:28Z</time>
      </trkpt>
      <trkpt lat="46.98366" lon="-1.22928">
        <ele>64</ele>
        <time>2021-09-04T15:39:38Z</time>
      </trkpt>
      <trkpt lat="46.98365" lon="-1.22909">
        <ele>64</ele>
        <time>2021-09-04T15:39:40Z</time>
      </trkpt>
      <trkpt lat="46.98363" lon="-1.229">
        <ele>64</ele>
        <time>2021-09-04T15:39:42Z</time>
      </trkpt>
      <trkpt lat="46.98494" lon="-1.22867">
        <ele>66</ele>
        <time>2021-09-04T15:40:05Z</time>
      </trkpt>
      <trkpt lat="46.98549" lon="-1.22856">
        <ele>66</ele>
        <time>2021-09-04T15:40:15Z</time>
      </trkpt>
      <trkpt lat="46.98569" lon="-1.22848">
        <ele>66</ele>
        <time>2021-09-04T15:40:19Z</time>
      </trkpt>
      <trkpt lat="46.98583" lon="-1.22836">
        <ele>66</ele>
        <time>2021-09-04T15:40:22Z</time>
      </trkpt>
      <trkpt lat="46.98601" lon="-1.22814">
        <ele>66</ele>
        <time>2021-09-04T15:40:26Z</time>
      </trkpt>
      <trkpt lat="46.98659" lon="-1.22725">
        <ele>66</ele>
        <time>2021-09-04T15:40:41Z</time>
      </trkpt>
      <trkpt lat="46.98689" lon="-1.22685">
        <ele>65</ele>
        <time>2021-09-04T15:40:48Z</time>
      </trkpt>
      <trkpt lat="46.98704" lon="-1.22669">
        <ele>65</ele>
        <time>2021-09-04T15:40:51Z</time>
      </trkpt>
      <trkpt lat="46.98749" lon="-1.22632">
        <ele>65</ele>
        <time>2021-09-04T15:41:00Z</time>
      </trkpt>
      <trkpt lat="46.9878" lon="-1.22594">
        <ele>65</ele>
        <time>2021-09-04T15:41:08Z</time>
      </trkpt>
      <trkpt lat="46.9878" lon="-1.22589">
        <ele>65</ele>
        <time>2021-09-04T15:41:08Z</time>
      </trkpt>
      <trkpt lat="46.98783" lon="-1.2258">
        <ele>65</ele>
        <time>2021-09-04T15:41:09Z</time>
      </trkpt>
      <trkpt lat="46.9879" lon="-1.22574">
        <ele>66</ele>
        <time>2021-09-04T15:41:11Z</time>
      </trkpt>
      <trkpt lat="46.9881" lon="-1.22547">
        <ele>67</ele>
        <time>2021-09-04T15:41:16Z</time>
      </trkpt>
      <trkpt lat="46.98945" lon="-1.223">
        <ele>68</ele>
        <time>2021-09-04T15:41:54Z</time>
      </trkpt>
      <trkpt lat="46.98993" lon="-1.22216">
        <ele>69</ele>
        <time>2021-09-04T15:42:07Z</time>
      </trkpt>
      <trkpt lat="46.99017" lon="-1.22181">
        <ele>69</ele>
        <time>2021-09-04T15:42:13Z</time>
      </trkpt>
      <trkpt lat="46.9905" lon="-1.22143">
        <ele>70</ele>
        <time>2021-09-04T15:42:21Z</time>
      </trkpt>
      <trkpt lat="46.99081" lon="-1.22112">
        <ele>71</ele>
        <time>2021-09-04T15:42:28Z</time>
      </trkpt>
      <trkpt lat="46.99187" lon="-1.22028">
        <ele>72</ele>
        <time>2021-09-04T15:42:49Z</time>
      </trkpt>
      <trkpt lat="46.99461" lon="-1.21755">
        <ele>76</ele>
        <time>2021-09-04T15:43:48Z</time>
      </trkpt>
      <trkpt lat="46.99647" lon="-1.2158">
        <ele>78</ele>
        <time>2021-09-04T15:44:27Z</time>
      </trkpt>
      <trkpt lat="46.99674" lon="-1.21551">
        <ele>78</ele>
        <time>2021-09-04T15:44:33Z</time>
      </trkpt>
      <trkpt lat="46.99847" lon="-1.21352">
        <ele>79</ele>
        <time>2021-09-04T15:45:12Z</time>
      </trkpt>
      <trkpt lat="46.99869" lon="-1.2133">
        <ele>79</ele>
        <time>2021-09-04T15:45:17Z</time>
      </trkpt>
      <trkpt lat="46.99886" lon="-1.21315">
        <ele>79</ele>
        <time>2021-09-04T15:45:21Z</time>
      </trkpt>
      <trkpt lat="46.99943" lon="-1.21276">
        <ele>78</ele>
        <time>2021-09-04T15:45:32Z</time>
      </trkpt>
      <trkpt lat="46.99975" lon="-1.21261">
        <ele>79</ele>
        <time>2021-09-04T15:45:38Z</time>
      </trkpt>
      <trkpt lat="47.00052" lon="-1.21233">
        <ele>78</ele>
        <time>2021-09-04T15:45:52Z</time>
      </trkpt>
      <trkpt lat="47.00069" lon="-1.21222">
        <ele>78</ele>
        <time>2021-09-04T15:45:55Z</time>
      </trkpt>
      <trkpt lat="47.00093" lon="-1.21194">
        <ele>78</ele>
        <time>2021-09-04T15:46:01Z</time>
      </trkpt>
      <trkpt lat="47.0016" lon="-1.21104">
        <ele>77</ele>
        <time>2021-09-04T15:46:17Z</time>
      </trkpt>
      <trkpt lat="47.00177" lon="-1.21084">
        <ele>77</ele>
        <time>2021-09-04T15:46:21Z</time>
      </trkpt>
      <trkpt lat="47.00196" lon="-1.21067">
        <ele>77</ele>
        <time>2021-09-04T15:46:25Z</time>
      </trkpt>
      <trkpt lat="47.00232" lon="-1.21045">
        <ele>77</ele>
        <time>2021-09-04T15:46:32Z</time>
      </trkpt>
      <trkpt lat="47.00258" lon="-1.21024">
        <ele>76</ele>
        <time>2021-09-04T15:46:37Z</time>
      </trkpt>
      <trkpt lat="47.00307" lon="-1.20977">
        <ele>76</ele>
        <time>2021-09-04T15:46:47Z</time>
      </trkpt>
      <trkpt lat="47.00367" lon="-1.20908">
        <ele>75</ele>
        <time>2021-09-04T15:47:01Z</time>
      </trkpt>
      <trkpt lat="47.00401" lon="-1.20873">
        <ele>74</ele>
        <time>2021-09-04T15:47:08Z</time>
      </trkpt>
      <trkpt lat="47.00566" lon="-1.20718">
        <ele>71</ele>
        <time>2021-09-04T15:47:43Z</time>
      </trkpt>
      <trkpt lat="47.00594" lon="-1.20689">
        <ele>70</ele>
        <time>2021-09-04T15:47:49Z</time>
      </trkpt>
      <trkpt lat="47.00663" lon="-1.20608">
        <ele>67</ele>
        <time>2021-09-04T15:48:05Z</time>
      </trkpt>
      <trkpt lat="47.00706" lon="-1.20564">
        <ele>68</ele>
        <time>2021-09-04T15:48:14Z</time>
      </trkpt>
      <trkpt lat="47.0077" lon="-1.20508">
        <ele>70</ele>
        <time>2021-09-04T15:48:28Z</time>
      </trkpt>
      <trkpt lat="47.0081" lon="-1.20469">
        <ele>70</ele>
        <time>2021-09-04T15:48:36Z</time>
      </trkpt>
      <trkpt lat="47.00858" lon="-1.20417">
        <ele>68</ele>
        <time>2021-09-04T15:48:47Z</time>
      </trkpt>
      <trkpt lat="47.00873" lon="-1.20395">
        <ele>67</ele>
        <time>2021-09-04T15:48:51Z</time>
      </trkpt>
      <trkpt lat="47.00909" lon="-1.20334">
        <ele>64</ele>
        <time>2021-09-04T15:49:00Z</time>
      </trkpt>
      <trkpt lat="47.00945" lon="-1.20289">
        <ele>64</ele>
        <time>2021-09-04T15:49:09Z</time>
      </trkpt>
      <trkpt lat="47.00977" lon="-1.20255">
        <ele>64</ele>
        <time>2021-09-04T15:49:16Z</time>
      </trkpt>
      <trkpt lat="47.00994" lon="-1.20235">
        <ele>64</ele>
        <time>2021-09-04T15:49:20Z</time>
      </trkpt>
      <trkpt lat="47.01005" lon="-1.20218">
        <ele>64</ele>
        <time>2021-09-04T15:49:22Z</time>
      </trkpt>
      <trkpt lat="47.01011" lon="-1.20205">
        <ele>64</ele>
        <time>2021-09-04T15:49:24Z</time>
      </trkpt>
      <trkpt lat="47.0101" lon="-1.20199">
        <ele>64</ele>
        <time>2021-09-04T15:49:25Z</time>
      </trkpt>
      <trkpt lat="47.01011" lon="-1.2019">
        <ele>64</ele>
        <time>2021-09-04T15:49:26Z</time>
      </trkpt>
      <trkpt lat="47.01017" lon="-1.2018">
        <ele>64</ele>
        <time>2021-09-04T15:49:28Z</time>
      </trkpt>
      <trkpt lat="47.01025" lon="-1.20175">
        <ele>64</ele>
        <time>2021-09-04T15:49:29Z</time>
      </trkpt>
      <trkpt lat="47.01034" lon="-1.20177">
        <ele>64</ele>
        <time>2021-09-04T15:49:31Z</time>
      </trkpt>
      <trkpt lat="47.0105" lon="-1.20169">
        <ele>65</ele>
        <time>2021-09-04T15:49:34Z</time>
      </trkpt>
      <trkpt lat="47.01143" lon="-1.20044">
        <ele>67</ele>
        <time>2021-09-04T15:49:56Z</time>
      </trkpt>
      <trkpt lat="47.012" lon="-1.1999">
        <ele>67</ele>
        <time>2021-09-04T15:50:09Z</time>
      </trkpt>
      <trkpt lat="47.01218" lon="-1.19976">
        <ele>66</ele>
        <time>2021-09-04T15:50:12Z</time>
      </trkpt>
      <trkpt lat="47.01176" lon="-1.19884">
        <ele>63</ele>
        <time>2021-09-04T15:50:26Z</time>
      </trkpt>
      <trkpt lat="47.01149" lon="-1.19795">
        <ele>60</ele>
        <time>2021-09-04T15:50:37Z</time>
      </trkpt>
      <trkpt lat="47.01129" lon="-1.19712">
        <ele>58</ele>
        <time>2021-09-04T15:50:48Z</time>
      </trkpt>
      <trkpt lat="47.01123" lon="-1.19676">
        <ele>57</ele>
        <time>2021-09-04T15:50:53Z</time>
      </trkpt>
      <trkpt lat="47.01139" lon="-1.19671">
        <ele>57</ele>
        <time>2021-09-04T15:50:55Z</time>
      </trkpt>
      <trkpt lat="47.01185" lon="-1.19676">
        <ele>59</ele>
        <time>2021-09-04T15:51:04Z</time>
      </trkpt>
      <trkpt lat="47.01197" lon="-1.19672">
        <ele>60</ele>
        <time>2021-09-04T15:51:06Z</time>
      </trkpt>
      <trkpt lat="47.01204" lon="-1.19667">
        <ele>60</ele>
        <time>2021-09-04T15:51:07Z</time>
      </trkpt>
      <trkpt lat="47.01213" lon="-1.19657">
        <ele>60</ele>
        <time>2021-09-04T15:51:09Z</time>
      </trkpt>
      <trkpt lat="47.01201" lon="-1.1964">
        <ele>59</ele>
        <time>2021-09-04T15:51:12Z</time>
      </trkpt>
      <trkpt lat="47.01189" lon="-1.19614">
        <ele>59</ele>
        <time>2021-09-04T15:51:16Z</time>
      </trkpt>
      <trkpt lat="47.01184" lon="-1.19601">
        <ele>58</ele>
        <time>2021-09-04T15:51:18Z</time>
      </trkpt>
      <trkpt lat="47.01176" lon="-1.19585">
        <ele>58</ele>
        <time>2021-09-04T15:51:20Z</time>
      </trkpt>
      <trkpt lat="47.01175" lon="-1.1958">
        <ele>58</ele>
        <time>2021-09-04T15:51:21Z</time>
      </trkpt>
      <trkpt lat="47.01172" lon="-1.19581">
        <ele>58</ele>
        <time>2021-09-04T15:51:21Z</time>
      </trkpt>
      <trkpt lat="47.01166" lon="-1.19576">
        <ele>58</ele>
        <time>2021-09-04T15:51:23Z</time>
      </trkpt>
      <trkpt lat="47.01165" lon="-1.1957">
        <ele>58</ele>
        <time>2021-09-04T15:51:23Z</time>
      </trkpt>
      <trkpt lat="47.01167" lon="-1.19563">
        <ele>58</ele>
        <time>2021-09-04T15:51:24Z</time>
      </trkpt>
      <trkpt lat="47.01175" lon="-1.19561">
        <ele>58</ele>
        <time>2021-09-04T15:51:26Z</time>
      </trkpt>
      <trkpt lat="47.01178" lon="-1.19566">
        <ele>58</ele>
        <time>2021-09-04T15:51:27Z</time>
      </trkpt>
      <trkpt lat="47.01239" lon="-1.19444">
        <ele>59</ele>
        <time>2021-09-04T15:51:45Z</time>
      </trkpt>
      <trkpt lat="47.01325" lon="-1.19229">
        <ele>56</ele>
        <time>2021-09-04T15:52:15Z</time>
      </trkpt>
      <trkpt lat="47.01332" lon="-1.19221">
        <ele>56</ele>
        <time>2021-09-04T15:52:17Z</time>
      </trkpt>
      <trkpt lat="47.0134" lon="-1.19215">
        <ele>56</ele>
        <time>2021-09-04T15:52:18Z</time>
      </trkpt>
      <trkpt lat="47.01348" lon="-1.19189">
        <ele>55</ele>
        <time>2021-09-04T15:52:22Z</time>
      </trkpt>
      <trkpt lat="47.01352" lon="-1.19129">
        <ele>56</ele>
        <time>2021-09-04T15:52:29Z</time>
      </trkpt>
      <trkpt lat="47.01349" lon="-1.19105">
        <ele>56</ele>
        <time>2021-09-04T15:52:32Z</time>
      </trkpt>
      <trkpt lat="47.01352" lon="-1.19055">
        <ele>57</ele>
        <time>2021-09-04T15:52:38Z</time>
      </trkpt>
      <trkpt lat="47.01349" lon="-1.19004">
        <ele>58</ele>
        <time>2021-09-04T15:52:44Z</time>
      </trkpt>
      <trkpt lat="47.01334" lon="-1.18899">
        <ele>60</ele>
        <time>2021-09-04T15:52:57Z</time>
      </trkpt>
      <trkpt lat="47.0133" lon="-1.18847">
        <ele>61</ele>
        <time>2021-09-04T15:53:04Z</time>
      </trkpt>
      <trkpt lat="47.01321" lon="-1.18799">
        <ele>62</ele>
        <time>2021-09-04T15:53:10Z</time>
      </trkpt>
      <trkpt lat="47.01314" lon="-1.18709">
        <ele>63</ele>
        <time>2021-09-04T15:53:21Z</time>
      </trkpt>
      <trkpt lat="47.013" lon="-1.18587">
        <ele>63</ele>
        <time>2021-09-04T15:53:36Z</time>
      </trkpt>
      <trkpt lat="47.0124" lon="-1.1851">
        <ele>64</ele>
        <time>2021-09-04T15:53:50Z</time>
      </trkpt>
      <trkpt lat="47.01245" lon="-1.18501">
        <ele>64</ele>
        <time>2021-09-04T15:53:51Z</time>
      </trkpt>
      <trkpt lat="47.01185" lon="-1.18423">
        <ele>65</ele>
        <time>2021-09-04T15:54:06Z</time>
      </trkpt>
      <trkpt lat="47.01173" lon="-1.18404">
        <ele>65</ele>
        <time>2021-09-04T15:54:09Z</time>
      </trkpt>
      <trkpt lat="47.01167" lon="-1.1839">
        <ele>65</ele>
        <time>2021-09-04T15:54:11Z</time>
      </trkpt>
      <trkpt lat="47.01165" lon="-1.18375">
        <ele>65</ele>
        <time>2021-09-04T15:54:13Z</time>
      </trkpt>
      <trkpt lat="47.01172" lon="-1.18368">
        <ele>65</ele>
        <time>2021-09-04T15:54:14Z</time>
      </trkpt>
      <trkpt lat="47.01199" lon="-1.18332">
        <ele>64</ele>
        <time>2021-09-04T15:54:21Z</time>
      </trkpt>
      <trkpt lat="47.01305" lon="-1.18142">
        <ele>62</ele>
        <time>2021-09-04T15:54:50Z</time>
      </trkpt>
      <trkpt lat="47.01333" lon="-1.18082">
        <ele>60</ele>
        <time>2021-09-04T15:54:59Z</time>
      </trkpt>
      <trkpt lat="47.01364" lon="-1.18003">
        <ele>59</ele>
        <time>2021-09-04T15:55:10Z</time>
      </trkpt>
      <trkpt lat="47.01417" lon="-1.17874">
        <ele>62</ele>
        <time>2021-09-04T15:55:29Z</time>
      </trkpt>
      <trkpt lat="47.01431" lon="-1.17845">
        <ele>63</ele>
        <time>2021-09-04T15:55:33Z</time>
      </trkpt>
      <trkpt lat="47.0146" lon="-1.17801">
        <ele>66</ele>
        <time>2021-09-04T15:55:40Z</time>
      </trkpt>
      <trkpt lat="47.01492" lon="-1.17765">
        <ele>67</ele>
        <time>2021-09-04T15:55:48Z</time>
      </trkpt>
      <trkpt lat="47.01512" lon="-1.17727">
        <ele>68</ele>
        <time>2021-09-04T15:55:53Z</time>
      </trkpt>
      <trkpt lat="47.01575" lon="-1.17566">
        <ele>71</ele>
        <time>2021-09-04T15:56:16Z</time>
      </trkpt>
      <trkpt lat="47.01579" lon="-1.17547">
        <ele>71</ele>
        <time>2021-09-04T15:56:18Z</time>
      </trkpt>
      <trkpt lat="47.01582" lon="-1.17509">
        <ele>72</ele>
        <time>2021-09-04T15:56:23Z</time>
      </trkpt>
      <trkpt lat="47.01573" lon="-1.1727">
        <ele>74</ele>
        <time>2021-09-04T15:56:52Z</time>
      </trkpt>
      <trkpt lat="47.01574" lon="-1.17245">
        <ele>74</ele>
        <time>2021-09-04T15:56:55Z</time>
      </trkpt>
      <trkpt lat="47.01578" lon="-1.17194">
        <ele>75</ele>
        <time>2021-09-04T15:57:01Z</time>
      </trkpt>
      <trkpt lat="47.01639" lon="-1.16907">
        <ele>82</ele>
        <time>2021-09-04T15:57:38Z</time>
      </trkpt>
      <trkpt lat="47.01642" lon="-1.16881">
        <ele>82</ele>
        <time>2021-09-04T15:57:41Z</time>
      </trkpt>
      <trkpt lat="47.01643" lon="-1.16852">
        <ele>83</ele>
        <time>2021-09-04T15:57:44Z</time>
      </trkpt>
      <trkpt lat="47.01638" lon="-1.16779">
        <ele>83</ele>
        <time>2021-09-04T15:57:53Z</time>
      </trkpt>
      <trkpt lat="47.01639" lon="-1.16757">
        <ele>84</ele>
        <time>2021-09-04T15:57:56Z</time>
      </trkpt>
      <trkpt lat="47.01667" lon="-1.16637">
        <ele>85</ele>
        <time>2021-09-04T15:58:11Z</time>
      </trkpt>
      <trkpt lat="47.01673" lon="-1.16622">
        <ele>86</ele>
        <time>2021-09-04T15:58:13Z</time>
      </trkpt>
      <trkpt lat="47.01683" lon="-1.16611">
        <ele>86</ele>
        <time>2021-09-04T15:58:16Z</time>
      </trkpt>
      <trkpt lat="47.01715" lon="-1.16587">
        <ele>86</ele>
        <time>2021-09-04T15:58:22Z</time>
      </trkpt>
      <trkpt lat="47.01733" lon="-1.16568">
        <ele>86</ele>
        <time>2021-09-04T15:58:26Z</time>
      </trkpt>
      <trkpt lat="47.01786" lon="-1.16487">
        <ele>86</ele>
        <time>2021-09-04T15:58:40Z</time>
      </trkpt>
      <trkpt lat="47.01803" lon="-1.16458">
        <ele>86</ele>
        <time>2021-09-04T15:58:44Z</time>
      </trkpt>
      <trkpt lat="47.01812" lon="-1.16437">
        <ele>86</ele>
        <time>2021-09-04T15:58:47Z</time>
      </trkpt>
      <trkpt lat="47.01851" lon="-1.16337">
        <ele>88</ele>
        <time>2021-09-04T15:59:01Z</time>
      </trkpt>
      <trkpt lat="47.01859" lon="-1.16321">
        <ele>89</ele>
        <time>2021-09-04T15:59:04Z</time>
      </trkpt>
      <trkpt lat="47.01878" lon="-1.16298">
        <ele>89</ele>
        <time>2021-09-04T15:59:08Z</time>
      </trkpt>
      <trkpt lat="47.01891" lon="-1.16275">
        <ele>89</ele>
        <time>2021-09-04T15:59:12Z</time>
      </trkpt>
      <trkpt lat="47.01902" lon="-1.16247">
        <ele>89</ele>
        <time>2021-09-04T15:59:16Z</time>
      </trkpt>
      <trkpt lat="47.01913" lon="-1.16211">
        <ele>89</ele>
        <time>2021-09-04T15:59:20Z</time>
      </trkpt>
      <trkpt lat="47.01935" lon="-1.16157">
        <ele>88</ele>
        <time>2021-09-04T15:59:28Z</time>
      </trkpt>
      <trkpt lat="47.01955" lon="-1.16118">
        <ele>88</ele>
        <time>2021-09-04T15:59:34Z</time>
      </trkpt>
      <trkpt lat="47.01991" lon="-1.16061">
        <ele>89</ele>
        <time>2021-09-04T15:59:43Z</time>
      </trkpt>
      <trkpt lat="47.02016" lon="-1.16001">
        <ele>89</ele>
        <time>2021-09-04T15:59:52Z</time>
      </trkpt>
      <trkpt lat="47.02108" lon="-1.1585">
        <ele>90</ele>
        <time>2021-09-04T16:00:16Z</time>
      </trkpt>
      <trkpt lat="47.02206" lon="-1.15685">
        <ele>91</ele>
        <time>2021-09-04T16:00:43Z</time>
      </trkpt>
      <trkpt lat="47.0222" lon="-1.15666">
        <ele>91</ele>
        <time>2021-09-04T16:00:46Z</time>
      </trkpt>
      <trkpt lat="47.02244" lon="-1.15656">
        <ele>91</ele>
        <time>2021-09-04T16:00:51Z</time>
      </trkpt>
      <trkpt lat="47.0229" lon="-1.15646">
        <ele>91</ele>
        <time>2021-09-04T16:00:59Z</time>
      </trkpt>
      <trkpt lat="47.02302" lon="-1.1564">
        <ele>90</ele>
        <time>2021-09-04T16:01:01Z</time>
      </trkpt>
      <trkpt lat="47.02324" lon="-1.15622">
        <ele>90</ele>
        <time>2021-09-04T16:01:06Z</time>
      </trkpt>
      <trkpt lat="47.02337" lon="-1.15602">
        <ele>90</ele>
        <time>2021-09-04T16:01:09Z</time>
      </trkpt>
      <trkpt lat="47.02352" lon="-1.15573">
        <ele>89</ele>
        <time>2021-09-04T16:01:14Z</time>
      </trkpt>
      <trkpt lat="47.02389" lon="-1.1547">
        <ele>88</ele>
        <time>2021-09-04T16:01:28Z</time>
      </trkpt>
      <trkpt lat="47.02398" lon="-1.15456">
        <ele>88</ele>
        <time>2021-09-04T16:01:30Z</time>
      </trkpt>
      <trkpt lat="47.02441" lon="-1.15411">
        <ele>87</ele>
        <time>2021-09-04T16:01:39Z</time>
      </trkpt>
      <trkpt lat="47.02399" lon="-1.15283">
        <ele>89</ele>
        <time>2021-09-04T16:01:57Z</time>
      </trkpt>
      <trkpt lat="47.02389" lon="-1.15257">
        <ele>90</ele>
        <time>2021-09-04T16:02:00Z</time>
      </trkpt>
      <trkpt lat="47.02358" lon="-1.15191">
        <ele>91</ele>
        <time>2021-09-04T16:02:10Z</time>
      </trkpt>
      <trkpt lat="47.02353" lon="-1.15173">
        <ele>92</ele>
        <time>2021-09-04T16:02:12Z</time>
      </trkpt>
      <trkpt lat="47.02348" lon="-1.15149">
        <ele>91</ele>
        <time>2021-09-04T16:02:15Z</time>
      </trkpt>
      <trkpt lat="47.02333" lon="-1.15014">
        <ele>90</ele>
        <time>2021-09-04T16:02:32Z</time>
      </trkpt>
      <trkpt lat="47.02315" lon="-1.14887">
        <ele>88</ele>
        <time>2021-09-04T16:02:48Z</time>
      </trkpt>
      <trkpt lat="47.02311" lon="-1.14866">
        <ele>89</ele>
        <time>2021-09-04T16:02:50Z</time>
      </trkpt>
      <trkpt lat="47.02296" lon="-1.14819">
        <ele>89</ele>
        <time>2021-09-04T16:02:57Z</time>
      </trkpt>
      <trkpt lat="47.02282" lon="-1.1476">
        <ele>88</ele>
        <time>2021-09-04T16:03:04Z</time>
      </trkpt>
      <trkpt lat="47.02269" lon="-1.14723">
        <ele>88</ele>
        <time>2021-09-04T16:03:09Z</time>
      </trkpt>
      <trkpt lat="47.02255" lon="-1.14694">
        <ele>89</ele>
        <time>2021-09-04T16:03:14Z</time>
      </trkpt>
      <trkpt lat="47.02242" lon="-1.14671">
        <ele>89</ele>
        <time>2021-09-04T16:03:17Z</time>
      </trkpt>
      <trkpt lat="47.0223" lon="-1.14646">
        <ele>89</ele>
        <time>2021-09-04T16:03:21Z</time>
      </trkpt>
      <trkpt lat="47.02165" lon="-1.14446">
        <ele>84</ele>
        <time>2021-09-04T16:03:48Z</time>
      </trkpt>
      <trkpt lat="47.02114" lon="-1.14244">
        <ele>80</ele>
        <time>2021-09-04T16:04:14Z</time>
      </trkpt>
      <trkpt lat="47.02083" lon="-1.1414">
        <ele>78</ele>
        <time>2021-09-04T16:04:28Z</time>
      </trkpt>
      <trkpt lat="47.02078" lon="-1.14119">
        <ele>77</ele>
        <time>2021-09-04T16:04:30Z</time>
      </trkpt>
      <trkpt lat="47.02079" lon="-1.14097">
        <ele>77</ele>
        <time>2021-09-04T16:04:33Z</time>
      </trkpt>
      <trkpt lat="47.02084" lon="-1.14076">
        <ele>77</ele>
        <time>2021-09-04T16:04:36Z</time>
      </trkpt>
      <trkpt lat="47.02091" lon="-1.14063">
        <ele>77</ele>
        <time>2021-09-04T16:04:38Z</time>
      </trkpt>
      <trkpt lat="47.021" lon="-1.14047">
        <ele>76</ele>
        <time>2021-09-04T16:04:40Z</time>
      </trkpt>
      <trkpt lat="47.02121" lon="-1.14018">
        <ele>76</ele>
        <time>2021-09-04T16:04:46Z</time>
      </trkpt>
      <trkpt lat="47.02151" lon="-1.1398">
        <ele>77</ele>
        <time>2021-09-04T16:04:53Z</time>
      </trkpt>
      <trkpt lat="47.02212" lon="-1.13885">
        <ele>77</ele>
        <time>2021-09-04T16:05:08Z</time>
      </trkpt>
      <trkpt lat="47.02239" lon="-1.13837">
        <ele>76</ele>
        <time>2021-09-04T16:05:16Z</time>
      </trkpt>
      <trkpt lat="47.02247" lon="-1.13816">
        <ele>76</ele>
        <time>2021-09-04T16:05:19Z</time>
      </trkpt>
      <trkpt lat="47.02246" lon="-1.13808">
        <ele>76</ele>
        <time>2021-09-04T16:05:20Z</time>
      </trkpt>
      <trkpt lat="47.02244" lon="-1.13804">
        <ele>76</ele>
        <time>2021-09-04T16:05:20Z</time>
      </trkpt>
      <trkpt lat="47.0223" lon="-1.13789">
        <ele>75</ele>
        <time>2021-09-04T16:05:24Z</time>
      </trkpt>
      <trkpt lat="47.02186" lon="-1.13708">
        <ele>72</ele>
        <time>2021-09-04T16:05:36Z</time>
      </trkpt>
      <trkpt lat="47.02148" lon="-1.13635">
        <ele>67</ele>
        <time>2021-09-04T16:05:47Z</time>
      </trkpt>
      <trkpt lat="47.02136" lon="-1.13586">
        <ele>64</ele>
        <time>2021-09-04T16:05:54Z</time>
      </trkpt>
      <trkpt lat="47.02131" lon="-1.1356">
        <ele>62</ele>
        <time>2021-09-04T16:05:57Z</time>
      </trkpt>
      <trkpt lat="47.02123" lon="-1.13496">
        <ele>58</ele>
        <time>2021-09-04T16:06:05Z</time>
      </trkpt>
      <trkpt lat="47.02119" lon="-1.13474">
        <ele>56</ele>
        <time>2021-09-04T16:06:07Z</time>
      </trkpt>
      <trkpt lat="47.02113" lon="-1.13457">
        <ele>54</ele>
        <time>2021-09-04T16:06:10Z</time>
      </trkpt>
      <trkpt lat="47.021" lon="-1.13441">
        <ele>52</ele>
        <time>2021-09-04T16:06:13Z</time>
      </trkpt>
      <trkpt lat="47.02071" lon="-1.13429">
        <ele>51</ele>
        <time>2021-09-04T16:06:18Z</time>
      </trkpt>
      <trkpt lat="47.02043" lon="-1.13424">
        <ele>52</ele>
        <time>2021-09-04T16:06:23Z</time>
      </trkpt>
      <trkpt lat="47.01977" lon="-1.13433">
        <ele>56</ele>
        <time>2021-09-04T16:06:35Z</time>
      </trkpt>
      <trkpt lat="47.01963" lon="-1.13434">
        <ele>58</ele>
        <time>2021-09-04T16:06:37Z</time>
      </trkpt>
      <trkpt lat="47.01948" lon="-1.13432">
        <ele>59</ele>
        <time>2021-09-04T16:06:40Z</time>
      </trkpt>
      <trkpt lat="47.01905" lon="-1.13413">
        <ele>65</ele>
        <time>2021-09-04T16:06:48Z</time>
      </trkpt>
      <trkpt lat="47.01893" lon="-1.13406">
        <ele>65</ele>
        <time>2021-09-04T16:06:50Z</time>
      </trkpt>
      <trkpt lat="47.01865" lon="-1.13372">
        <ele>67</ele>
        <time>2021-09-04T16:06:57Z</time>
      </trkpt>
      <trkpt lat="47.01821" lon="-1.133">
        <ele>70</ele>
        <time>2021-09-04T16:07:09Z</time>
      </trkpt>
      <trkpt lat="47.01799" lon="-1.13253">
        <ele>71</ele>
        <time>2021-09-04T16:07:16Z</time>
      </trkpt>
      <trkpt lat="47.01785" lon="-1.13213">
        <ele>72</ele>
        <time>2021-09-04T16:07:21Z</time>
      </trkpt>
      <trkpt lat="47.01781" lon="-1.13196">
        <ele>73</ele>
        <time>2021-09-04T16:07:23Z</time>
      </trkpt>
      <trkpt lat="47.01771" lon="-1.13111">
        <ele>76</ele>
        <time>2021-09-04T16:07:34Z</time>
      </trkpt>
      <trkpt lat="47.01766" lon="-1.13086">
        <ele>78</ele>
        <time>2021-09-04T16:07:37Z</time>
      </trkpt>
      <trkpt lat="47.01755" lon="-1.13049">
        <ele>79</ele>
        <time>2021-09-04T16:07:42Z</time>
      </trkpt>
      <trkpt lat="47.01746" lon="-1.13">
        <ele>79</ele>
        <time>2021-09-04T16:07:48Z</time>
      </trkpt>
      <trkpt lat="47.01737" lon="-1.12942">
        <ele>79</ele>
        <time>2021-09-04T16:07:55Z</time>
      </trkpt>
      <trkpt lat="47.01732" lon="-1.12894">
        <ele>79</ele>
        <time>2021-09-04T16:08:01Z</time>
      </trkpt>
      <trkpt lat="47.01729" lon="-1.12874">
        <ele>79</ele>
        <time>2021-09-04T16:08:03Z</time>
      </trkpt>
      <trkpt lat="47.01723" lon="-1.12856">
        <ele>79</ele>
        <time>2021-09-04T16:08:06Z</time>
      </trkpt>
      <trkpt lat="47.01678" lon="-1.12782">
        <ele>79</ele>
        <time>2021-09-04T16:08:18Z</time>
      </trkpt>
      <trkpt lat="47.01669" lon="-1.12771">
        <ele>79</ele>
        <time>2021-09-04T16:08:20Z</time>
      </trkpt>
      <trkpt lat="47.01658" lon="-1.12763">
        <ele>79</ele>
        <time>2021-09-04T16:08:22Z</time>
      </trkpt>
      <trkpt lat="47.01638" lon="-1.12755">
        <ele>79</ele>
        <time>2021-09-04T16:08:26Z</time>
      </trkpt>
      <trkpt lat="47.01576" lon="-1.12735">
        <ele>79</ele>
        <time>2021-09-04T16:08:37Z</time>
      </trkpt>
      <trkpt lat="47.01536" lon="-1.12718">
        <ele>78</ele>
        <time>2021-09-04T16:08:45Z</time>
      </trkpt>
      <trkpt lat="47.01495" lon="-1.12693">
        <ele>78</ele>
        <time>2021-09-04T16:08:52Z</time>
      </trkpt>
      <trkpt lat="47.01479" lon="-1.12682">
        <ele>78</ele>
        <time>2021-09-04T16:08:56Z</time>
      </trkpt>
      <trkpt lat="47.0147" lon="-1.12673">
        <ele>78</ele>
        <time>2021-09-04T16:08:58Z</time>
      </trkpt>
      <trkpt lat="47.01462" lon="-1.12661">
        <ele>78</ele>
        <time>2021-09-04T16:09:00Z</time>
      </trkpt>
      <trkpt lat="47.01431" lon="-1.12593">
        <ele>78</ele>
        <time>2021-09-04T16:09:10Z</time>
      </trkpt>
      <trkpt lat="47.01386" lon="-1.125">
        <ele>76</ele>
        <time>2021-09-04T16:09:23Z</time>
      </trkpt>
      <trkpt lat="47.01359" lon="-1.12424">
        <ele>73</ele>
        <time>2021-09-04T16:09:34Z</time>
      </trkpt>
      <trkpt lat="47.01331" lon="-1.12356">
        <ele>68</ele>
        <time>2021-09-04T16:09:43Z</time>
      </trkpt>
      <trkpt lat="47.01327" lon="-1.1234">
        <ele>68</ele>
        <time>2021-09-04T16:09:45Z</time>
      </trkpt>
      <trkpt lat="47.01322" lon="-1.12283">
        <ele>67</ele>
        <time>2021-09-04T16:09:52Z</time>
      </trkpt>
      <trkpt lat="47.01317" lon="-1.12267">
        <ele>67</ele>
        <time>2021-09-04T16:09:55Z</time>
      </trkpt>
      <trkpt lat="47.01314" lon="-1.12263">
        <ele>67</ele>
        <time>2021-09-04T16:09:55Z</time>
      </trkpt>
      <trkpt lat="47.01317" lon="-1.12249">
        <ele>67</ele>
        <time>2021-09-04T16:09:57Z</time>
      </trkpt>
      <trkpt lat="47.01314" lon="-1.12234">
        <ele>67</ele>
        <time>2021-09-04T16:09:59Z</time>
      </trkpt>
      <trkpt lat="47.01312" lon="-1.12211">
        <ele>67</ele>
        <time>2021-09-04T16:10:02Z</time>
      </trkpt>
      <trkpt lat="47.01316" lon="-1.12146">
        <ele>66</ele>
        <time>2021-09-04T16:10:10Z</time>
      </trkpt>
      <trkpt lat="47.01321" lon="-1.12098">
        <ele>64</ele>
        <time>2021-09-04T16:10:16Z</time>
      </trkpt>
      <trkpt lat="47.01337" lon="-1.12039">
        <ele>62</ele>
        <time>2021-09-04T16:10:23Z</time>
      </trkpt>
      <trkpt lat="47.01339" lon="-1.12026">
        <ele>61</ele>
        <time>2021-09-04T16:10:25Z</time>
      </trkpt>
      <trkpt lat="47.01356" lon="-1.11975">
        <ele>61</ele>
        <time>2021-09-04T16:10:32Z</time>
      </trkpt>
      <trkpt lat="47.01348" lon="-1.1197">
        <ele>60</ele>
        <time>2021-09-04T16:10:33Z</time>
      </trkpt>
      <trkpt lat="47.01395" lon="-1.11847">
        <ele>56</ele>
        <time>2021-09-04T16:10:50Z</time>
      </trkpt>
      <trkpt lat="47.01402" lon="-1.11823">
        <ele>55</ele>
        <time>2021-09-04T16:10:54Z</time>
      </trkpt>
      <trkpt lat="47.01412" lon="-1.1178">
        <ele>56</ele>
        <time>2021-09-04T16:10:59Z</time>
      </trkpt>
      <trkpt lat="47.01419" lon="-1.11722">
        <ele>59</ele>
        <time>2021-09-04T16:11:06Z</time>
      </trkpt>
      <trkpt lat="47.01425" lon="-1.11682">
        <ele>62</ele>
        <time>2021-09-04T16:11:11Z</time>
      </trkpt>
      <trkpt lat="47.01437" lon="-1.11635">
        <ele>66</ele>
        <time>2021-09-04T16:11:17Z</time>
      </trkpt>
      <trkpt lat="47.01445" lon="-1.11615">
        <ele>66</ele>
        <time>2021-09-04T16:11:20Z</time>
      </trkpt>
      <trkpt lat="47.0146" lon="-1.11586">
        <ele>66</ele>
        <time>2021-09-04T16:11:25Z</time>
      </trkpt>
      <trkpt lat="47.01489" lon="-1.11543">
        <ele>66</ele>
        <time>2021-09-04T16:11:32Z</time>
      </trkpt>
      <trkpt lat="47.01508" lon="-1.11509">
        <ele>68</ele>
        <time>2021-09-04T16:11:37Z</time>
      </trkpt>
      <trkpt lat="47.01505" lon="-1.11506">
        <ele>68</ele>
        <time>2021-09-04T16:11:38Z</time>
      </trkpt>
      <trkpt lat="47.01496" lon="-1.11507">
        <ele>69</ele>
        <time>2021-09-04T16:11:39Z</time>
      </trkpt>
      <trkpt lat="47.01474" lon="-1.11538">
        <ele>68</ele>
        <time>2021-09-04T16:11:45Z</time>
      </trkpt>
      <trkpt lat="47.01446" lon="-1.11561">
        <ele>70</ele>
        <time>2021-09-04T16:11:51Z</time>
      </trkpt>
      <trkpt lat="47.01419" lon="-1.11575">
        <ele>72</ele>
        <time>2021-09-04T16:11:56Z</time>
      </trkpt>
      <trkpt lat="47.01396" lon="-1.1158">
        <ele>73</ele>
        <time>2021-09-04T16:12:00Z</time>
      </trkpt>
      <trkpt lat="47.01356" lon="-1.11579">
        <ele>75</ele>
        <time>2021-09-04T16:12:07Z</time>
      </trkpt>
      <trkpt lat="47.0133" lon="-1.11569">
        <ele>77</ele>
        <time>2021-09-04T16:12:12Z</time>
      </trkpt>
      <trkpt lat="47.01264" lon="-1.11536">
        <ele>77</ele>
        <time>2021-09-04T16:12:24Z</time>
      </trkpt>
      <trkpt lat="47.0123" lon="-1.11521">
        <ele>78</ele>
        <time>2021-09-04T16:12:30Z</time>
      </trkpt>
      <trkpt lat="47.01205" lon="-1.11517">
        <ele>78</ele>
        <time>2021-09-04T16:12:35Z</time>
      </trkpt>
      <trkpt lat="47.01187" lon="-1.11517">
        <ele>79</ele>
        <time>2021-09-04T16:12:38Z</time>
      </trkpt>
      <trkpt lat="47.01138" lon="-1.11526">
        <ele>79</ele>
        <time>2021-09-04T16:12:47Z</time>
      </trkpt>
      <trkpt lat="47.01072" lon="-1.11548">
        <ele>80</ele>
        <time>2021-09-04T16:12:59Z</time>
      </trkpt>
      <trkpt lat="47.01045" lon="-1.11551">
        <ele>80</ele>
        <time>2021-09-04T16:13:04Z</time>
      </trkpt>
      <trkpt lat="47.0102" lon="-1.11549">
        <ele>80</ele>
        <time>2021-09-04T16:13:08Z</time>
      </trkpt>
      <trkpt lat="47.0099" lon="-1.1154">
        <ele>81</ele>
        <time>2021-09-04T16:13:14Z</time>
      </trkpt>
      <trkpt lat="47.00965" lon="-1.11526">
        <ele>82</ele>
        <time>2021-09-04T16:13:18Z</time>
      </trkpt>
      <trkpt lat="47.00944" lon="-1.11509">
        <ele>83</ele>
        <time>2021-09-04T16:13:23Z</time>
      </trkpt>
      <trkpt lat="47.00888" lon="-1.11453">
        <ele>86</ele>
        <time>2021-09-04T16:13:35Z</time>
      </trkpt>
      <trkpt lat="47.00868" lon="-1.11423">
        <ele>87</ele>
        <time>2021-09-04T16:13:40Z</time>
      </trkpt>
      <trkpt lat="47.00853" lon="-1.11395">
        <ele>88</ele>
        <time>2021-09-04T16:13:44Z</time>
      </trkpt>
      <trkpt lat="47.00833" lon="-1.11339">
        <ele>91</ele>
        <time>2021-09-04T16:13:52Z</time>
      </trkpt>
      <trkpt lat="47.00814" lon="-1.11273">
        <ele>93</ele>
        <time>2021-09-04T16:14:01Z</time>
      </trkpt>
      <trkpt lat="47.0081" lon="-1.1127">
        <ele>93</ele>
        <time>2021-09-04T16:14:01Z</time>
      </trkpt>
      <trkpt lat="47.00793" lon="-1.11203">
        <ele>94</ele>
        <time>2021-09-04T16:14:10Z</time>
      </trkpt>
      <trkpt lat="47.00795" lon="-1.11197">
        <ele>94</ele>
        <time>2021-09-04T16:14:11Z</time>
      </trkpt>
      <trkpt lat="47.00776" lon="-1.1111">
        <ele>96</ele>
        <time>2021-09-04T16:14:22Z</time>
      </trkpt>
      <trkpt lat="47.0076" lon="-1.10987">
        <ele>98</ele>
        <time>2021-09-04T16:14:37Z</time>
      </trkpt>
      <trkpt lat="47.00755" lon="-1.10935">
        <ele>99</ele>
        <time>2021-09-04T16:14:44Z</time>
      </trkpt>
      <trkpt lat="47.00751" lon="-1.10852">
        <ele>99</ele>
        <time>2021-09-04T16:14:54Z</time>
      </trkpt>
      <trkpt lat="47.00744" lon="-1.10771">
        <ele>100</ele>
        <time>2021-09-04T16:15:04Z</time>
      </trkpt>
      <trkpt lat="47.00735" lon="-1.10701">
        <ele>102</ele>
        <time>2021-09-04T16:15:12Z</time>
      </trkpt>
      <trkpt lat="47.00716" lon="-1.10607">
        <ele>103</ele>
        <time>2021-09-04T16:15:24Z</time>
      </trkpt>
      <trkpt lat="47.00706" lon="-1.10567">
        <ele>104</ele>
        <time>2021-09-04T16:15:29Z</time>
      </trkpt>
      <trkpt lat="47.00682" lon="-1.10484">
        <ele>104</ele>
        <time>2021-09-04T16:15:40Z</time>
      </trkpt>
      <trkpt lat="47.00632" lon="-1.10339">
        <ele>104</ele>
        <time>2021-09-04T16:16:00Z</time>
      </trkpt>
      <trkpt lat="47.00576" lon="-1.10194">
        <ele>105</ele>
        <time>2021-09-04T16:16:20Z</time>
      </trkpt>
      <trkpt lat="47.00538" lon="-1.10106">
        <ele>105</ele>
        <time>2021-09-04T16:16:33Z</time>
      </trkpt>
      <trkpt lat="47.00477" lon="-1.0998">
        <ele>105</ele>
        <time>2021-09-04T16:16:51Z</time>
      </trkpt>
      <trkpt lat="47.00422" lon="-1.09874">
        <ele>106</ele>
        <time>2021-09-04T16:17:08Z</time>
      </trkpt>
      <trkpt lat="47.00383" lon="-1.09808">
        <ele>106</ele>
        <time>2021-09-04T16:17:18Z</time>
      </trkpt>
      <trkpt lat="47.00354" lon="-1.0976">
        <ele>107</ele>
        <time>2021-09-04T16:17:26Z</time>
      </trkpt>
      <trkpt lat="47.00323" lon="-1.09715">
        <ele>107</ele>
        <time>2021-09-04T16:17:34Z</time>
      </trkpt>
      <trkpt lat="47.00302" lon="-1.09687">
        <ele>106</ele>
        <time>2021-09-04T16:17:39Z</time>
      </trkpt>
      <trkpt lat="47.00236" lon="-1.09608">
        <ele>105</ele>
        <time>2021-09-04T16:17:54Z</time>
      </trkpt>
      <trkpt lat="47.00198" lon="-1.09569">
        <ele>104</ele>
        <time>2021-09-04T16:18:02Z</time>
      </trkpt>
      <trkpt lat="47.00146" lon="-1.09526">
        <ele>104</ele>
        <time>2021-09-04T16:18:13Z</time>
      </trkpt>
      <trkpt lat="47.0003" lon="-1.09445">
        <ele>104</ele>
        <time>2021-09-04T16:18:36Z</time>
      </trkpt>
      <trkpt lat="46.99884" lon="-1.09356">
        <ele>103</ele>
        <time>2021-09-04T16:19:04Z</time>
      </trkpt>
      <trkpt lat="46.99759" lon="-1.09283">
        <ele>100</ele>
        <time>2021-09-04T16:19:28Z</time>
      </trkpt>
      <trkpt lat="46.99689" lon="-1.09239">
        <ele>99</ele>
        <time>2021-09-04T16:19:41Z</time>
      </trkpt>
      <trkpt lat="46.99625" lon="-1.09196">
        <ele>100</ele>
        <time>2021-09-04T16:19:54Z</time>
      </trkpt>
      <trkpt lat="46.99535" lon="-1.09127">
        <ele>101</ele>
        <time>2021-09-04T16:20:12Z</time>
      </trkpt>
      <trkpt lat="46.99484" lon="-1.0908">
        <ele>102</ele>
        <time>2021-09-04T16:20:23Z</time>
      </trkpt>
      <trkpt lat="46.99357" lon="-1.08947">
        <ele>107</ele>
        <time>2021-09-04T16:20:50Z</time>
      </trkpt>
      <trkpt lat="46.99303" lon="-1.08895">
        <ele>108</ele>
        <time>2021-09-04T16:21:02Z</time>
      </trkpt>
      <trkpt lat="46.99223" lon="-1.08826">
        <ele>108</ele>
        <time>2021-09-04T16:21:18Z</time>
      </trkpt>
      <trkpt lat="46.99146" lon="-1.0877">
        <ele>109</ele>
        <time>2021-09-04T16:21:34Z</time>
      </trkpt>
      <trkpt lat="46.99102" lon="-1.0874">
        <ele>109</ele>
        <time>2021-09-04T16:21:42Z</time>
      </trkpt>
      <trkpt lat="46.99068" lon="-1.0872">
        <ele>109</ele>
        <time>2021-09-04T16:21:49Z</time>
      </trkpt>
      <trkpt lat="46.98959" lon="-1.08658">
        <ele>109</ele>
        <time>2021-09-04T16:22:10Z</time>
      </trkpt>
      <trkpt lat="46.98841" lon="-1.08599">
        <ele>111</ele>
        <time>2021-09-04T16:22:32Z</time>
      </trkpt>
      <trkpt lat="46.98657" lon="-1.08515">
        <ele>110</ele>
        <time>2021-09-04T16:23:06Z</time>
      </trkpt>
      <trkpt lat="46.98581" lon="-1.08472">
        <ele>109</ele>
        <time>2021-09-04T16:23:21Z</time>
      </trkpt>
      <trkpt lat="46.98532" lon="-1.08439">
        <ele>109</ele>
        <time>2021-09-04T16:23:30Z</time>
      </trkpt>
      <trkpt lat="46.98383" lon="-1.08328">
        <ele>110</ele>
        <time>2021-09-04T16:24:00Z</time>
      </trkpt>
      <trkpt lat="46.98337" lon="-1.08297">
        <ele>110</ele>
        <time>2021-09-04T16:24:09Z</time>
      </trkpt>
      <trkpt lat="46.98165" lon="-1.08201">
        <ele>113</ele>
        <time>2021-09-04T16:24:42Z</time>
      </trkpt>
      <trkpt lat="46.98069" lon="-1.08138">
        <ele>116</ele>
        <time>2021-09-04T16:25:00Z</time>
      </trkpt>
      <trkpt lat="46.9802" lon="-1.08101">
        <ele>117</ele>
        <time>2021-09-04T16:25:10Z</time>
      </trkpt>
      <trkpt lat="46.97978" lon="-1.08064">
        <ele>117</ele>
        <time>2021-09-04T16:25:19Z</time>
      </trkpt>
      <trkpt lat="46.97931" lon="-1.08019">
        <ele>117</ele>
        <time>2021-09-04T16:25:29Z</time>
      </trkpt>
      <trkpt lat="46.9783" lon="-1.07913">
        <ele>118</ele>
        <time>2021-09-04T16:25:51Z</time>
      </trkpt>
      <trkpt lat="46.97769" lon="-1.07858">
        <ele>119</ele>
        <time>2021-09-04T16:26:04Z</time>
      </trkpt>
      <trkpt lat="46.9773" lon="-1.07827">
        <ele>119</ele>
        <time>2021-09-04T16:26:12Z</time>
      </trkpt>
      <trkpt lat="46.97661" lon="-1.07778">
        <ele>120</ele>
        <time>2021-09-04T16:26:25Z</time>
      </trkpt>
      <trkpt lat="46.9762" lon="-1.07752">
        <ele>121</ele>
        <time>2021-09-04T16:26:33Z</time>
      </trkpt>
      <trkpt lat="46.97497" lon="-1.07682">
        <ele>121</ele>
        <time>2021-09-04T16:26:57Z</time>
      </trkpt>
      <trkpt lat="46.97411" lon="-1.07638">
        <ele>121</ele>
        <time>2021-09-04T16:27:13Z</time>
      </trkpt>
      <trkpt lat="46.97269" lon="-1.07576">
        <ele>122</ele>
        <time>2021-09-04T16:27:39Z</time>
      </trkpt>
      <trkpt lat="46.97227" lon="-1.07561">
        <ele>122</ele>
        <time>2021-09-04T16:27:47Z</time>
      </trkpt>
      <trkpt lat="46.97153" lon="-1.07538">
        <ele>121</ele>
        <time>2021-09-04T16:28:01Z</time>
      </trkpt>
      <trkpt lat="46.97044" lon="-1.07512">
        <ele>120</ele>
        <time>2021-09-04T16:28:20Z</time>
      </trkpt>
      <trkpt lat="46.9696" lon="-1.07496">
        <ele>119</ele>
        <time>2021-09-04T16:28:35Z</time>
      </trkpt>
      <trkpt lat="46.96834" lon="-1.07481">
        <ele>119</ele>
        <time>2021-09-04T16:28:58Z</time>
      </trkpt>
      <trkpt lat="46.9672" lon="-1.07471">
        <ele>120</ele>
        <time>2021-09-04T16:29:18Z</time>
      </trkpt>
      <trkpt lat="46.96618" lon="-1.07472">
        <ele>119</ele>
        <time>2021-09-04T16:29:36Z</time>
      </trkpt>
      <trkpt lat="46.96552" lon="-1.07478">
        <ele>118</ele>
        <time>2021-09-04T16:29:48Z</time>
      </trkpt>
      <trkpt lat="46.9648" lon="-1.07497">
        <ele>115</ele>
        <time>2021-09-04T16:30:01Z</time>
      </trkpt>
      <trkpt lat="46.96382" lon="-1.0754">
        <ele>112</ele>
        <time>2021-09-04T16:30:19Z</time>
      </trkpt>
      <trkpt lat="46.9635" lon="-1.07548">
        <ele>111</ele>
        <time>2021-09-04T16:30:25Z</time>
      </trkpt>
      <trkpt lat="46.96315" lon="-1.07545">
        <ele>110</ele>
        <time>2021-09-04T16:30:31Z</time>
      </trkpt>
      <trkpt lat="46.96297" lon="-1.0754">
        <ele>110</ele>
        <time>2021-09-04T16:30:34Z</time>
      </trkpt>
      <trkpt lat="46.96229" lon="-1.07506">
        <ele>107</ele>
        <time>2021-09-04T16:30:47Z</time>
      </trkpt>
      <trkpt lat="46.96216" lon="-1.07505">
        <ele>106</ele>
        <time>2021-09-04T16:30:50Z</time>
      </trkpt>
      <trkpt lat="46.96191" lon="-1.07515">
        <ele>104</ele>
        <time>2021-09-04T16:30:54Z</time>
      </trkpt>
      <trkpt lat="46.96171" lon="-1.0753">
        <ele>103</ele>
        <time>2021-09-04T16:30:58Z</time>
      </trkpt>
      <trkpt lat="46.96141" lon="-1.07565">
        <ele>101</ele>
        <time>2021-09-04T16:31:05Z</time>
      </trkpt>
      <trkpt lat="46.96124" lon="-1.07582">
        <ele>100</ele>
        <time>2021-09-04T16:31:09Z</time>
      </trkpt>
      <trkpt lat="46.96103" lon="-1.07597">
        <ele>99</ele>
        <time>2021-09-04T16:31:13Z</time>
      </trkpt>
      <trkpt lat="46.96082" lon="-1.07606">
        <ele>98</ele>
        <time>2021-09-04T16:31:17Z</time>
      </trkpt>
      <trkpt lat="46.9606" lon="-1.07608">
        <ele>97</ele>
        <time>2021-09-04T16:31:21Z</time>
      </trkpt>
      <trkpt lat="46.96043" lon="-1.07607">
        <ele>96</ele>
        <time>2021-09-04T16:31:24Z</time>
      </trkpt>
      <trkpt lat="46.9602" lon="-1.07602">
        <ele>94</ele>
        <time>2021-09-04T16:31:28Z</time>
      </trkpt>
      <trkpt lat="46.95997" lon="-1.07587">
        <ele>93</ele>
        <time>2021-09-04T16:31:32Z</time>
      </trkpt>
      <trkpt lat="46.95978" lon="-1.07572">
        <ele>94</ele>
        <time>2021-09-04T16:31:36Z</time>
      </trkpt>
      <trkpt lat="46.95948" lon="-1.0754">
        <ele>94</ele>
        <time>2021-09-04T16:31:43Z</time>
      </trkpt>
      <trkpt lat="46.95924" lon="-1.07501">
        <ele>95</ele>
        <time>2021-09-04T16:31:49Z</time>
      </trkpt>
      <trkpt lat="46.95907" lon="-1.07468">
        <ele>96</ele>
        <time>2021-09-04T16:31:54Z</time>
      </trkpt>
      <trkpt lat="46.95897" lon="-1.07452">
        <ele>96</ele>
        <time>2021-09-04T16:31:57Z</time>
      </trkpt>
      <trkpt lat="46.95886" lon="-1.07442">
        <ele>96</ele>
        <time>2021-09-04T16:31:59Z</time>
      </trkpt>
      <trkpt lat="46.95874" lon="-1.07435">
        <ele>97</ele>
        <time>2021-09-04T16:32:01Z</time>
      </trkpt>
      <trkpt lat="46.95862" lon="-1.07432">
        <ele>97</ele>
        <time>2021-09-04T16:32:03Z</time>
      </trkpt>
      <trkpt lat="46.95836" lon="-1.07436">
        <ele>99</ele>
        <time>2021-09-04T16:32:08Z</time>
      </trkpt>
      <trkpt lat="46.95821" lon="-1.07445">
        <ele>100</ele>
        <time>2021-09-04T16:32:11Z</time>
      </trkpt>
      <trkpt lat="46.95775" lon="-1.075">
        <ele>105</ele>
        <time>2021-09-04T16:32:22Z</time>
      </trkpt>
      <trkpt lat="46.95762" lon="-1.07512">
        <ele>106</ele>
        <time>2021-09-04T16:32:24Z</time>
      </trkpt>
      <trkpt lat="46.95747" lon="-1.07524">
        <ele>108</ele>
        <time>2021-09-04T16:32:27Z</time>
      </trkpt>
      <trkpt lat="46.95707" lon="-1.0754">
        <ele>111</ele>
        <time>2021-09-04T16:32:35Z</time>
      </trkpt>
      <trkpt lat="46.95672" lon="-1.07545">
        <ele>112</ele>
        <time>2021-09-04T16:32:41Z</time>
      </trkpt>
      <trkpt lat="46.95577" lon="-1.07532">
        <ele>116</ele>
        <time>2021-09-04T16:32:58Z</time>
      </trkpt>
      <trkpt lat="46.95538" lon="-1.07533">
        <ele>117</ele>
        <time>2021-09-04T16:33:05Z</time>
      </trkpt>
      <trkpt lat="46.95491" lon="-1.07547">
        <ele>119</ele>
        <time>2021-09-04T16:33:13Z</time>
      </trkpt>
      <trkpt lat="46.95469" lon="-1.07558">
        <ele>121</ele>
        <time>2021-09-04T16:33:18Z</time>
      </trkpt>
      <trkpt lat="46.95447" lon="-1.07573">
        <ele>122</ele>
        <time>2021-09-04T16:33:22Z</time>
      </trkpt>
      <trkpt lat="46.95415" lon="-1.07604">
        <ele>124</ele>
        <time>2021-09-04T16:33:29Z</time>
      </trkpt>
      <trkpt lat="46.95388" lon="-1.07639">
        <ele>124</ele>
        <time>2021-09-04T16:33:35Z</time>
      </trkpt>
      <trkpt lat="46.95352" lon="-1.07702">
        <ele>124</ele>
        <time>2021-09-04T16:33:45Z</time>
      </trkpt>
      <trkpt lat="46.95301" lon="-1.07805">
        <ele>124</ele>
        <time>2021-09-04T16:34:01Z</time>
      </trkpt>
      <trkpt lat="46.95265" lon="-1.07859">
        <ele>123</ele>
        <time>2021-09-04T16:34:10Z</time>
      </trkpt>
      <trkpt lat="46.95234" lon="-1.07892">
        <ele>122</ele>
        <time>2021-09-04T16:34:17Z</time>
      </trkpt>
      <trkpt lat="46.95167" lon="-1.0794">
        <ele>120</ele>
        <time>2021-09-04T16:34:30Z</time>
      </trkpt>
      <trkpt lat="46.95168" lon="-1.07952">
        <ele>120</ele>
        <time>2021-09-04T16:34:31Z</time>
      </trkpt>
      <trkpt lat="46.95164" lon="-1.07964">
        <ele>120</ele>
        <time>2021-09-04T16:34:33Z</time>
      </trkpt>
      <trkpt lat="46.95161" lon="-1.07967">
        <ele>120</ele>
        <time>2021-09-04T16:34:34Z</time>
      </trkpt>
      <trkpt lat="46.95152" lon="-1.0797">
        <ele>120</ele>
        <time>2021-09-04T16:34:35Z</time>
      </trkpt>
      <trkpt lat="46.95148" lon="-1.07968">
        <ele>120</ele>
        <time>2021-09-04T16:34:36Z</time>
      </trkpt>
      <trkpt lat="46.95141" lon="-1.0796">
        <ele>120</ele>
        <time>2021-09-04T16:34:38Z</time>
      </trkpt>
      <trkpt lat="46.95139" lon="-1.07948">
        <ele>120</ele>
        <time>2021-09-04T16:34:39Z</time>
      </trkpt>
      <trkpt lat="46.95141" lon="-1.07936">
        <ele>120</ele>
        <time>2021-09-04T16:34:41Z</time>
      </trkpt>
      <trkpt lat="46.95148" lon="-1.07928">
        <ele>120</ele>
        <time>2021-09-04T16:34:42Z</time>
      </trkpt>
      <trkpt lat="46.95049" lon="-1.07656">
        <ele>123</ele>
        <time>2021-09-04T16:35:20Z</time>
      </trkpt>
      <trkpt lat="46.94985" lon="-1.07471">
        <ele>118</ele>
        <time>2021-09-04T16:35:45Z</time>
      </trkpt>
      <trkpt lat="46.94972" lon="-1.07438">
        <ele>116</ele>
        <time>2021-09-04T16:35:49Z</time>
      </trkpt>
      <trkpt lat="46.94957" lon="-1.07416">
        <ele>115</ele>
        <time>2021-09-04T16:35:53Z</time>
      </trkpt>
      <trkpt lat="46.94948" lon="-1.07407">
        <ele>115</ele>
        <time>2021-09-04T16:35:55Z</time>
      </trkpt>
      <trkpt lat="46.94931" lon="-1.07395">
        <ele>115</ele>
        <time>2021-09-04T16:35:58Z</time>
      </trkpt>
      <trkpt lat="46.94871" lon="-1.07368">
        <ele>118</ele>
        <time>2021-09-04T16:36:10Z</time>
      </trkpt>
      <trkpt lat="46.94848" lon="-1.07354">
        <ele>120</ele>
        <time>2021-09-04T16:36:14Z</time>
      </trkpt>
      <trkpt lat="46.94811" lon="-1.07325">
        <ele>122</ele>
        <time>2021-09-04T16:36:22Z</time>
      </trkpt>
      <trkpt lat="46.94788" lon="-1.07303">
        <ele>124</ele>
        <time>2021-09-04T16:36:26Z</time>
      </trkpt>
      <trkpt lat="46.94719" lon="-1.07218">
        <ele>129</ele>
        <time>2021-09-04T16:36:42Z</time>
      </trkpt>
      <trkpt lat="46.94673" lon="-1.07145">
        <ele>130</ele>
        <time>2021-09-04T16:36:55Z</time>
      </trkpt>
      <trkpt lat="46.94606" lon="-1.07028">
        <ele>130</ele>
        <time>2021-09-04T16:37:13Z</time>
      </trkpt>
      <trkpt lat="46.94541" lon="-1.06899">
        <ele>130</ele>
        <time>2021-09-04T16:37:33Z</time>
      </trkpt>
      <trkpt lat="46.94488" lon="-1.06783">
        <ele>132</ele>
        <time>2021-09-04T16:37:50Z</time>
      </trkpt>
      <trkpt lat="46.94481" lon="-1.06785">
        <ele>133</ele>
        <time>2021-09-04T16:37:51Z</time>
      </trkpt>
      <trkpt lat="46.94475" lon="-1.06779">
        <ele>133</ele>
        <time>2021-09-04T16:37:52Z</time>
      </trkpt>
      <trkpt lat="46.94402" lon="-1.06821">
        <ele>137</ele>
        <time>2021-09-04T16:38:06Z</time>
      </trkpt>
      <trkpt lat="46.94377" lon="-1.06838">
        <ele>138</ele>
        <time>2021-09-04T16:38:11Z</time>
      </trkpt>
      <trkpt lat="46.94352" lon="-1.06851">
        <ele>139</ele>
        <time>2021-09-04T16:38:16Z</time>
      </trkpt>
      <trkpt lat="46.94291" lon="-1.0689">
        <ele>139</ele>
        <time>2021-09-04T16:38:27Z</time>
      </trkpt>
      <trkpt lat="46.94273" lon="-1.06833">
        <ele>140</ele>
        <time>2021-09-04T16:38:35Z</time>
      </trkpt>
      <trkpt lat="46.94204" lon="-1.06654">
        <ele>144</ele>
        <time>2021-09-04T16:39:00Z</time>
      </trkpt>
      <trkpt lat="46.94161" lon="-1.06434">
        <ele>151</ele>
        <time>2021-09-04T16:39:28Z</time>
      </trkpt>
      <trkpt lat="46.94157" lon="-1.06409">
        <ele>152</ele>
        <time>2021-09-04T16:39:31Z</time>
      </trkpt>
      <trkpt lat="46.94158" lon="-1.06392">
        <ele>152</ele>
        <time>2021-09-04T16:39:33Z</time>
      </trkpt>
      <trkpt lat="46.94152" lon="-1.06385">
        <ele>153</ele>
        <time>2021-09-04T16:39:34Z</time>
      </trkpt>
      <trkpt lat="46.94129" lon="-1.06343">
        <ele>155</ele>
        <time>2021-09-04T16:39:41Z</time>
      </trkpt>
      <trkpt lat="46.94113" lon="-1.06323">
        <ele>156</ele>
        <time>2021-09-04T16:39:45Z</time>
      </trkpt>
      <trkpt lat="46.94055" lon="-1.06279">
        <ele>160</ele>
        <time>2021-09-04T16:39:56Z</time>
      </trkpt>
      <trkpt lat="46.94025" lon="-1.06262">
        <ele>162</ele>
        <time>2021-09-04T16:40:02Z</time>
      </trkpt>
      <trkpt lat="46.93954" lon="-1.06226">
        <ele>163</ele>
        <time>2021-09-04T16:40:15Z</time>
      </trkpt>
      <trkpt lat="46.93925" lon="-1.06205">
        <ele>164</ele>
        <time>2021-09-04T16:40:21Z</time>
      </trkpt>
      <trkpt lat="46.93905" lon="-1.06187">
        <ele>164</ele>
        <time>2021-09-04T16:40:25Z</time>
      </trkpt>
      <trkpt lat="46.9387" lon="-1.06147">
        <ele>166</ele>
        <time>2021-09-04T16:40:33Z</time>
      </trkpt>
      <trkpt lat="46.93847" lon="-1.06118">
        <ele>167</ele>
        <time>2021-09-04T16:40:39Z</time>
      </trkpt>
      <trkpt lat="46.93826" lon="-1.06084">
        <ele>169</ele>
        <time>2021-09-04T16:40:44Z</time>
      </trkpt>
      <trkpt lat="46.93815" lon="-1.06063">
        <ele>169</ele>
        <time>2021-09-04T16:40:47Z</time>
      </trkpt>
      <trkpt lat="46.938" lon="-1.0603">
        <ele>170</ele>
        <time>2021-09-04T16:40:52Z</time>
      </trkpt>
      <trkpt lat="46.9379" lon="-1.06003">
        <ele>171</ele>
        <time>2021-09-04T16:40:56Z</time>
      </trkpt>
      <trkpt lat="46.93782" lon="-1.05971">
        <ele>172</ele>
        <time>2021-09-04T16:41:00Z</time>
      </trkpt>
      <trkpt lat="46.93767" lon="-1.05887">
        <ele>173</ele>
        <time>2021-09-04T16:41:11Z</time>
      </trkpt>
      <trkpt lat="46.9376" lon="-1.05862">
        <ele>173</ele>
        <time>2021-09-04T16:41:14Z</time>
      </trkpt>
      <trkpt lat="46.93745" lon="-1.05826">
        <ele>173</ele>
        <time>2021-09-04T16:41:19Z</time>
      </trkpt>
      <trkpt lat="46.9373" lon="-1.05799">
        <ele>175</ele>
        <time>2021-09-04T16:41:23Z</time>
      </trkpt>
      <trkpt lat="46.93716" lon="-1.0578">
        <ele>176</ele>
        <time>2021-09-04T16:41:27Z</time>
      </trkpt>
      <trkpt lat="46.93688" lon="-1.05752">
        <ele>177</ele>
        <time>2021-09-04T16:41:33Z</time>
      </trkpt>
      <trkpt lat="46.93628" lon="-1.05709">
        <ele>181</ele>
        <time>2021-09-04T16:41:45Z</time>
      </trkpt>
      <trkpt lat="46.93582" lon="-1.0568">
        <ele>184</ele>
        <time>2021-09-04T16:41:54Z</time>
      </trkpt>
      <trkpt lat="46.93562" lon="-1.0567">
        <ele>184</ele>
        <time>2021-09-04T16:41:57Z</time>
      </trkpt>
      <trkpt lat="46.93514" lon="-1.05652">
        <ele>186</ele>
        <time>2021-09-04T16:42:06Z</time>
      </trkpt>
      <trkpt lat="46.93427" lon="-1.05625">
        <ele>187</ele>
        <time>2021-09-04T16:42:22Z</time>
      </trkpt>
      <trkpt lat="46.9335" lon="-1.05592">
        <ele>185</ele>
        <time>2021-09-04T16:42:36Z</time>
      </trkpt>
      <trkpt lat="46.93186" lon="-1.05513">
        <ele>181</ele>
        <time>2021-09-04T16:43:07Z</time>
      </trkpt>
      <trkpt lat="46.9318" lon="-1.05526">
        <ele>180</ele>
        <time>2021-09-04T16:43:09Z</time>
      </trkpt>
      <trkpt lat="46.93169" lon="-1.05533">
        <ele>180</ele>
        <time>2021-09-04T16:43:11Z</time>
      </trkpt>
      <trkpt lat="46.93162" lon="-1.05533">
        <ele>179</ele>
        <time>2021-09-04T16:43:12Z</time>
      </trkpt>
      <trkpt lat="46.93155" lon="-1.05529">
        <ele>179</ele>
        <time>2021-09-04T16:43:14Z</time>
      </trkpt>
      <trkpt lat="46.9315" lon="-1.05523">
        <ele>179</ele>
        <time>2021-09-04T16:43:15Z</time>
      </trkpt>
      <trkpt lat="46.93145" lon="-1.05508">
        <ele>180</ele>
        <time>2021-09-04T16:43:17Z</time>
      </trkpt>
      <trkpt lat="46.93146" lon="-1.05491">
        <ele>181</ele>
        <time>2021-09-04T16:43:19Z</time>
      </trkpt>
      <trkpt lat="46.93149" lon="-1.05482">
        <ele>181</ele>
        <time>2021-09-04T16:43:20Z</time>
      </trkpt>
      <trkpt lat="46.93154" lon="-1.05476">
        <ele>181</ele>
        <time>2021-09-04T16:43:21Z</time>
      </trkpt>
      <trkpt lat="46.9316" lon="-1.05472">
        <ele>182</ele>
        <time>2021-09-04T16:43:22Z</time>
      </trkpt>
      <trkpt lat="46.93166" lon="-1.05471">
        <ele>182</ele>
        <time>2021-09-04T16:43:23Z</time>
      </trkpt>
      <trkpt lat="46.93173" lon="-1.05472">
        <ele>182</ele>
        <time>2021-09-04T16:43:25Z</time>
      </trkpt>
      <trkpt lat="46.93211" lon="-1.0532">
        <ele>188</ele>
        <time>2021-09-04T16:43:44Z</time>
      </trkpt>
      <trkpt lat="46.9322" lon="-1.05287">
        <ele>189</ele>
        <time>2021-09-04T16:43:49Z</time>
      </trkpt>
      <trkpt lat="46.93246" lon="-1.05213">
        <ele>191</ele>
        <time>2021-09-04T16:43:59Z</time>
      </trkpt>
      <trkpt lat="46.93254" lon="-1.05195">
        <ele>192</ele>
        <time>2021-09-04T16:44:01Z</time>
      </trkpt>
      <trkpt lat="46.93265" lon="-1.05178">
        <ele>192</ele>
        <time>2021-09-04T16:44:04Z</time>
      </trkpt>
      <trkpt lat="46.93287" lon="-1.05156">
        <ele>192</ele>
        <time>2021-09-04T16:44:09Z</time>
      </trkpt>
      <trkpt lat="46.93305" lon="-1.05146">
        <ele>192</ele>
        <time>2021-09-04T16:44:12Z</time>
      </trkpt>
      <trkpt lat="46.93305" lon="-1.05137">
        <ele>192</ele>
        <time>2021-09-04T16:44:13Z</time>
      </trkpt>
      <trkpt lat="46.93307" lon="-1.05129">
        <ele>192</ele>
        <time>2021-09-04T16:44:15Z</time>
      </trkpt>
      <trkpt lat="46.9331" lon="-1.05123">
        <ele>192</ele>
        <time>2021-09-04T16:44:15Z</time>
      </trkpt>
      <trkpt lat="46.93315" lon="-1.05118">
        <ele>192</ele>
        <time>2021-09-04T16:44:17Z</time>
      </trkpt>
      <trkpt lat="46.933" lon="-1.05067">
        <ele>192</ele>
        <time>2021-09-04T16:44:23Z</time>
      </trkpt>
      <trkpt lat="46.93289" lon="-1.05043">
        <ele>192</ele>
        <time>2021-09-04T16:44:27Z</time>
      </trkpt>
      <trkpt lat="46.93232" lon="-1.04957">
        <ele>193</ele>
        <time>2021-09-04T16:44:41Z</time>
      </trkpt>
      <trkpt lat="46.93201" lon="-1.04899">
        <ele>192</ele>
        <time>2021-09-04T16:44:50Z</time>
      </trkpt>
      <trkpt lat="46.93136" lon="-1.04753">
        <ele>192</ele>
        <time>2021-09-04T16:45:11Z</time>
      </trkpt>
      <trkpt lat="46.93081" lon="-1.04603">
        <ele>194</ele>
        <time>2021-09-04T16:45:32Z</time>
      </trkpt>
      <trkpt lat="46.93026" lon="-1.04415">
        <ele>196</ele>
        <time>2021-09-04T16:45:57Z</time>
      </trkpt>
      <trkpt lat="46.93016" lon="-1.0439">
        <ele>197</ele>
        <time>2021-09-04T16:46:01Z</time>
      </trkpt>
      <trkpt lat="46.92982" lon="-1.04316">
        <ele>198</ele>
        <time>2021-09-04T16:46:11Z</time>
      </trkpt>
      <trkpt lat="46.92971" lon="-1.04282">
        <ele>198</ele>
        <time>2021-09-04T16:46:16Z</time>
      </trkpt>
      <trkpt lat="46.92967" lon="-1.04255">
        <ele>198</ele>
        <time>2021-09-04T16:46:19Z</time>
      </trkpt>
      <trkpt lat="46.92954" lon="-1.04147">
        <ele>196</ele>
        <time>2021-09-04T16:46:33Z</time>
      </trkpt>
      <trkpt lat="46.92945" lon="-1.04089">
        <ele>197</ele>
        <time>2021-09-04T16:46:40Z</time>
      </trkpt>
      <trkpt lat="46.92935" lon="-1.04054">
        <ele>197</ele>
        <time>2021-09-04T16:46:44Z</time>
      </trkpt>
      <trkpt lat="46.92927" lon="-1.04031">
        <ele>198</ele>
        <time>2021-09-04T16:46:48Z</time>
      </trkpt>
      <trkpt lat="46.92894" lon="-1.03956">
        <ele>198</ele>
        <time>2021-09-04T16:46:58Z</time>
      </trkpt>
      <trkpt lat="46.92867" lon="-1.0388">
        <ele>196</ele>
        <time>2021-09-04T16:47:09Z</time>
      </trkpt>
      <trkpt lat="46.92856" lon="-1.03843">
        <ele>195</ele>
        <time>2021-09-04T16:47:14Z</time>
      </trkpt>
      <trkpt lat="46.92848" lon="-1.0381">
        <ele>195</ele>
        <time>2021-09-04T16:47:18Z</time>
      </trkpt>
      <trkpt lat="46.92832" lon="-1.03706">
        <ele>195</ele>
        <time>2021-09-04T16:47:31Z</time>
      </trkpt>
      <trkpt lat="46.92826" lon="-1.03681">
        <ele>195</ele>
        <time>2021-09-04T16:47:34Z</time>
      </trkpt>
      <trkpt lat="46.92817" lon="-1.03657">
        <ele>195</ele>
        <time>2021-09-04T16:47:37Z</time>
      </trkpt>
      <trkpt lat="46.92791" lon="-1.03599">
        <ele>194</ele>
        <time>2021-09-04T16:47:46Z</time>
      </trkpt>
      <trkpt lat="46.92785" lon="-1.0358">
        <ele>193</ele>
        <time>2021-09-04T16:47:48Z</time>
      </trkpt>
      <trkpt lat="46.92781" lon="-1.03561">
        <ele>193</ele>
        <time>2021-09-04T16:47:51Z</time>
      </trkpt>
      <trkpt lat="46.92779" lon="-1.03534">
        <ele>194</ele>
        <time>2021-09-04T16:47:54Z</time>
      </trkpt>
      <trkpt lat="46.92776" lon="-1.03492">
        <ele>194</ele>
        <time>2021-09-04T16:47:59Z</time>
      </trkpt>
      <trkpt lat="46.92777" lon="-1.03424">
        <ele>195</ele>
        <time>2021-09-04T16:48:08Z</time>
      </trkpt>
      <trkpt lat="46.92775" lon="-1.03404">
        <ele>195</ele>
        <time>2021-09-04T16:48:10Z</time>
      </trkpt>
      <trkpt lat="46.92772" lon="-1.03385">
        <ele>195</ele>
        <time>2021-09-04T16:48:12Z</time>
      </trkpt>
      <trkpt lat="46.92766" lon="-1.03364">
        <ele>195</ele>
        <time>2021-09-04T16:48:15Z</time>
      </trkpt>
      <trkpt lat="46.92706" lon="-1.03227">
        <ele>193</ele>
        <time>2021-09-04T16:48:35Z</time>
      </trkpt>
      <trkpt lat="46.92692" lon="-1.03179">
        <ele>193</ele>
        <time>2021-09-04T16:48:41Z</time>
      </trkpt>
      <trkpt lat="46.92686" lon="-1.03152">
        <ele>193</ele>
        <time>2021-09-04T16:48:45Z</time>
      </trkpt>
      <trkpt lat="46.9262" lon="-1.02763">
        <ele>188</ele>
        <time>2021-09-04T16:49:33Z</time>
      </trkpt>
      <trkpt lat="46.92614" lon="-1.02737">
        <ele>188</ele>
        <time>2021-09-04T16:49:37Z</time>
      </trkpt>
      <trkpt lat="46.92597" lon="-1.02686">
        <ele>188</ele>
        <time>2021-09-04T16:49:44Z</time>
      </trkpt>
      <trkpt lat="46.92543" lon="-1.02552">
        <ele>188</ele>
        <time>2021-09-04T16:50:03Z</time>
      </trkpt>
      <trkpt lat="46.92516" lon="-1.02484">
        <ele>189</ele>
        <time>2021-09-04T16:50:12Z</time>
      </trkpt>
      <trkpt lat="46.9251" lon="-1.02454">
        <ele>189</ele>
        <time>2021-09-04T16:50:16Z</time>
      </trkpt>
      <trkpt lat="46.92506" lon="-1.02421">
        <ele>188</ele>
        <time>2021-09-04T16:50:20Z</time>
      </trkpt>
      <trkpt lat="46.92478" lon="-1.0243">
        <ele>188</ele>
        <time>2021-09-04T16:50:25Z</time>
      </trkpt>
      <trkpt lat="46.92467" lon="-1.02442">
        <ele>188</ele>
        <time>2021-09-04T16:50:28Z</time>
      </trkpt>
      <trkpt lat="46.92464" lon="-1.0245">
        <ele>188</ele>
        <time>2021-09-04T16:50:29Z</time>
      </trkpt>
      <trkpt lat="46.92461" lon="-1.0246">
        <ele>188</ele>
        <time>2021-09-04T16:50:30Z</time>
      </trkpt>
      <trkpt lat="46.9246" lon="-1.0247">
        <ele>188</ele>
        <time>2021-09-04T16:50:31Z</time>
      </trkpt>
      <trkpt lat="46.92464" lon="-1.02508">
        <ele>189</ele>
        <time>2021-09-04T16:50:36Z</time>
      </trkpt>
      <trkpt lat="46.9246" lon="-1.0253">
        <ele>188</ele>
        <time>2021-09-04T16:50:39Z</time>
      </trkpt>
      <trkpt lat="46.92456" lon="-1.02542">
        <ele>188</ele>
        <time>2021-09-04T16:50:40Z</time>
      </trkpt>
      <trkpt lat="46.92449" lon="-1.02552">
        <ele>188</ele>
        <time>2021-09-04T16:50:42Z</time>
      </trkpt>
      <trkpt lat="46.92442" lon="-1.0256">
        <ele>188</ele>
        <time>2021-09-04T16:50:44Z</time>
      </trkpt>
      <trkpt lat="46.9243" lon="-1.02567">
        <ele>188</ele>
        <time>2021-09-04T16:50:46Z</time>
      </trkpt>
      <trkpt lat="46.92421" lon="-1.02569">
        <ele>188</ele>
        <time>2021-09-04T16:50:48Z</time>
      </trkpt>
      <trkpt lat="46.92354" lon="-1.02565">
        <ele>188</ele>
        <time>2021-09-04T16:50:59Z</time>
      </trkpt>
      <trkpt lat="46.92324" lon="-1.0256">
        <ele>187</ele>
        <time>2021-09-04T16:51:05Z</time>
      </trkpt>
      <trkpt lat="46.92298" lon="-1.02548">
        <ele>186</ele>
        <time>2021-09-04T16:51:10Z</time>
      </trkpt>
      <trkpt lat="46.92215" lon="-1.025">
        <ele>185</ele>
        <time>2021-09-04T16:51:26Z</time>
      </trkpt>
      <trkpt lat="46.92191" lon="-1.02492">
        <ele>184</ele>
        <time>2021-09-04T16:51:30Z</time>
      </trkpt>
      <trkpt lat="46.92166" lon="-1.02489">
        <ele>184</ele>
        <time>2021-09-04T16:51:34Z</time>
      </trkpt>
      <trkpt lat="46.92101" lon="-1.02502">
        <ele>182</ele>
        <time>2021-09-04T16:51:46Z</time>
      </trkpt>
      <trkpt lat="46.92075" lon="-1.02501">
        <ele>180</ele>
        <time>2021-09-04T16:51:51Z</time>
      </trkpt>
      <trkpt lat="46.92013" lon="-1.02489">
        <ele>177</ele>
        <time>2021-09-04T16:52:02Z</time>
      </trkpt>
      <trkpt lat="46.91978" lon="-1.02491">
        <ele>176</ele>
        <time>2021-09-04T16:52:08Z</time>
      </trkpt>
      <trkpt lat="46.91914" lon="-1.02538">
        <ele>174</ele>
        <time>2021-09-04T16:52:21Z</time>
      </trkpt>
      <trkpt lat="46.9188" lon="-1.02552">
        <ele>172</ele>
        <time>2021-09-04T16:52:27Z</time>
      </trkpt>
      <trkpt lat="46.91821" lon="-1.0256">
        <ele>170</ele>
        <time>2021-09-04T16:52:38Z</time>
      </trkpt>
      <trkpt lat="46.91789" lon="-1.02559">
        <ele>168</ele>
        <time>2021-09-04T16:52:43Z</time>
      </trkpt>
      <trkpt lat="46.91742" lon="-1.02535">
        <ele>166</ele>
        <time>2021-09-04T16:52:52Z</time>
      </trkpt>
      <trkpt lat="46.9172" lon="-1.02538">
        <ele>164</ele>
        <time>2021-09-04T16:52:56Z</time>
      </trkpt>
      <trkpt lat="46.91694" lon="-1.02551">
        <ele>162</ele>
        <time>2021-09-04T16:53:01Z</time>
      </trkpt>
      <trkpt lat="46.91663" lon="-1.0257">
        <ele>160</ele>
        <time>2021-09-04T16:53:07Z</time>
      </trkpt>
      <trkpt lat="46.91636" lon="-1.02581">
        <ele>159</ele>
        <time>2021-09-04T16:53:12Z</time>
      </trkpt>
      <trkpt lat="46.91618" lon="-1.02581">
        <ele>158</ele>
        <time>2021-09-04T16:53:15Z</time>
      </trkpt>
      <trkpt lat="46.91603" lon="-1.02573">
        <ele>157</ele>
        <time>2021-09-04T16:53:18Z</time>
      </trkpt>
      <trkpt lat="46.91592" lon="-1.02561">
        <ele>157</ele>
        <time>2021-09-04T16:53:20Z</time>
      </trkpt>
      <trkpt lat="46.91576" lon="-1.02537">
        <ele>157</ele>
        <time>2021-09-04T16:53:25Z</time>
      </trkpt>
      <trkpt lat="46.91557" lon="-1.02529">
        <ele>156</ele>
        <time>2021-09-04T16:53:28Z</time>
      </trkpt>
      <trkpt lat="46.91534" lon="-1.02531">
        <ele>155</ele>
        <time>2021-09-04T16:53:32Z</time>
      </trkpt>
      <trkpt lat="46.91496" lon="-1.02525">
        <ele>152</ele>
        <time>2021-09-04T16:53:39Z</time>
      </trkpt>
      <trkpt lat="46.91441" lon="-1.02523">
        <ele>147</ele>
        <time>2021-09-04T16:53:49Z</time>
      </trkpt>
      <trkpt lat="46.91394" lon="-1.02549">
        <ele>144</ele>
        <time>2021-09-04T16:53:58Z</time>
      </trkpt>
      <trkpt lat="46.91365" lon="-1.02571">
        <ele>143</ele>
        <time>2021-09-04T16:54:03Z</time>
      </trkpt>
      <trkpt lat="46.91315" lon="-1.02593">
        <ele>142</ele>
        <time>2021-09-04T16:54:13Z</time>
      </trkpt>
      <trkpt lat="46.91219" lon="-1.02681">
        <ele>148</ele>
        <time>2021-09-04T16:54:33Z</time>
      </trkpt>
      <trkpt lat="46.91189" lon="-1.02738">
        <ele>151</ele>
        <time>2021-09-04T16:54:42Z</time>
      </trkpt>
      <trkpt lat="46.9117" lon="-1.02759">
        <ele>152</ele>
        <time>2021-09-04T16:54:46Z</time>
      </trkpt>
      <trkpt lat="46.91156" lon="-1.0276">
        <ele>153</ele>
        <time>2021-09-04T16:54:48Z</time>
      </trkpt>
      <trkpt lat="46.91142" lon="-1.02753">
        <ele>154</ele>
        <time>2021-09-04T16:54:51Z</time>
      </trkpt>
      <trkpt lat="46.91103" lon="-1.0271">
        <ele>158</ele>
        <time>2021-09-04T16:55:00Z</time>
      </trkpt>
      <trkpt lat="46.91013" lon="-1.02651">
        <ele>161</ele>
        <time>2021-09-04T16:55:17Z</time>
      </trkpt>
      <trkpt lat="46.90902" lon="-1.02586">
        <ele>157</ele>
        <time>2021-09-04T16:55:39Z</time>
      </trkpt>
      <trkpt lat="46.90703" lon="-1.0243">
        <ele>155</ele>
        <time>2021-09-04T16:56:19Z</time>
      </trkpt>
      <trkpt lat="46.90593" lon="-1.0241">
        <ele>155</ele>
        <time>2021-09-04T16:56:38Z</time>
      </trkpt>
      <trkpt lat="46.90494" lon="-1.02384">
        <ele>148</ele>
        <time>2021-09-04T16:56:56Z</time>
      </trkpt>
      <trkpt lat="46.9043" lon="-1.02354">
        <ele>147</ele>
        <time>2021-09-04T16:57:08Z</time>
      </trkpt>
      <trkpt lat="46.90333" lon="-1.02254">
        <ele>147</ele>
        <time>2021-09-04T16:57:29Z</time>
      </trkpt>
      <trkpt lat="46.90319" lon="-1.02233">
        <ele>149</ele>
        <time>2021-09-04T16:57:33Z</time>
      </trkpt>
      <trkpt lat="46.90294" lon="-1.02172">
        <ele>151</ele>
        <time>2021-09-04T16:57:42Z</time>
      </trkpt>
      <trkpt lat="46.90249" lon="-1.02083">
        <ele>150</ele>
        <time>2021-09-04T16:57:55Z</time>
      </trkpt>
      <trkpt lat="46.90221" lon="-1.02044">
        <ele>153</ele>
        <time>2021-09-04T16:58:02Z</time>
      </trkpt>
      <trkpt lat="46.90187" lon="-1.02017">
        <ele>155</ele>
        <time>2021-09-04T16:58:09Z</time>
      </trkpt>
      <trkpt lat="46.90131" lon="-1.0198">
        <ele>160</ele>
        <time>2021-09-04T16:58:20Z</time>
      </trkpt>
      <trkpt lat="46.90049" lon="-1.01908">
        <ele>165</ele>
        <time>2021-09-04T16:58:37Z</time>
      </trkpt>
      <trkpt lat="46.90022" lon="-1.01901">
        <ele>168</ele>
        <time>2021-09-04T16:58:42Z</time>
      </trkpt>
      <trkpt lat="46.89995" lon="-1.01903">
        <ele>171</ele>
        <time>2021-09-04T16:58:46Z</time>
      </trkpt>
      <trkpt lat="46.89973" lon="-1.01924">
        <ele>172</ele>
        <time>2021-09-04T16:58:51Z</time>
      </trkpt>
      <trkpt lat="46.89958" lon="-1.01933">
        <ele>174</ele>
        <time>2021-09-04T16:58:54Z</time>
      </trkpt>
      <trkpt lat="46.89932" lon="-1.01938">
        <ele>175</ele>
        <time>2021-09-04T16:58:59Z</time>
      </trkpt>
      <trkpt lat="46.89885" lon="-1.01925">
        <ele>178</ele>
        <time>2021-09-04T16:59:07Z</time>
      </trkpt>
      <trkpt lat="46.89858" lon="-1.01923">
        <ele>179</ele>
        <time>2021-09-04T16:59:12Z</time>
      </trkpt>
      <trkpt lat="46.89838" lon="-1.01925">
        <ele>181</ele>
        <time>2021-09-04T16:59:16Z</time>
      </trkpt>
      <trkpt lat="46.89822" lon="-1.01934">
        <ele>181</ele>
        <time>2021-09-04T16:59:19Z</time>
      </trkpt>
      <trkpt lat="46.89799" lon="-1.0195">
        <ele>181</ele>
        <time>2021-09-04T16:59:23Z</time>
      </trkpt>
      <trkpt lat="46.89767" lon="-1.01982">
        <ele>180</ele>
        <time>2021-09-04T16:59:30Z</time>
      </trkpt>
      <trkpt lat="46.89715" lon="-1.02017">
        <ele>178</ele>
        <time>2021-09-04T16:59:40Z</time>
      </trkpt>
      <trkpt lat="46.89664" lon="-1.02034">
        <ele>177</ele>
        <time>2021-09-04T16:59:50Z</time>
      </trkpt>
      <trkpt lat="46.89547" lon="-1.02104">
        <ele>181</ele>
        <time>2021-09-04T17:00:12Z</time>
      </trkpt>
      <trkpt lat="46.89487" lon="-1.02116">
        <ele>182</ele>
        <time>2021-09-04T17:00:23Z</time>
      </trkpt>
      <trkpt lat="46.89433" lon="-1.02133">
        <ele>179</ele>
        <time>2021-09-04T17:00:33Z</time>
      </trkpt>
      <trkpt lat="46.89358" lon="-1.02149">
        <ele>174</ele>
        <time>2021-09-04T17:00:46Z</time>
      </trkpt>
      <trkpt lat="46.89316" lon="-1.02166">
        <ele>171</ele>
        <time>2021-09-04T17:00:54Z</time>
      </trkpt>
      <trkpt lat="46.89263" lon="-1.0217">
        <ele>168</ele>
        <time>2021-09-04T17:01:03Z</time>
      </trkpt>
      <trkpt lat="46.89184" lon="-1.02148">
        <ele>163</ele>
        <time>2021-09-04T17:01:18Z</time>
      </trkpt>
      <trkpt lat="46.89166" lon="-1.02138">
        <ele>163</ele>
        <time>2021-09-04T17:01:21Z</time>
      </trkpt>
      <trkpt lat="46.89153" lon="-1.02123">
        <ele>162</ele>
        <time>2021-09-04T17:01:24Z</time>
      </trkpt>
      <trkpt lat="46.89139" lon="-1.02114">
        <ele>162</ele>
        <time>2021-09-04T17:01:27Z</time>
      </trkpt>
      <trkpt lat="46.89125" lon="-1.0211">
        <ele>162</ele>
        <time>2021-09-04T17:01:29Z</time>
      </trkpt>
      <trkpt lat="46.89114" lon="-1.0211">
        <ele>161</ele>
        <time>2021-09-04T17:01:31Z</time>
      </trkpt>
      <trkpt lat="46.89017" lon="-1.02144">
        <ele>156</ele>
        <time>2021-09-04T17:01:49Z</time>
      </trkpt>
      <trkpt lat="46.88969" lon="-1.02135">
        <ele>156</ele>
        <time>2021-09-04T17:01:58Z</time>
      </trkpt>
      <trkpt lat="46.88865" lon="-1.02098">
        <ele>154</ele>
        <time>2021-09-04T17:02:17Z</time>
      </trkpt>
      <trkpt lat="46.88822" lon="-1.02088">
        <ele>152</ele>
        <time>2021-09-04T17:02:24Z</time>
      </trkpt>
      <trkpt lat="46.88794" lon="-1.02087">
        <ele>150</ele>
        <time>2021-09-04T17:02:29Z</time>
      </trkpt>
      <trkpt lat="46.88731" lon="-1.02096">
        <ele>146</ele>
        <time>2021-09-04T17:02:41Z</time>
      </trkpt>
      <trkpt lat="46.88657" lon="-1.02114">
        <ele>142</ele>
        <time>2021-09-04T17:02:54Z</time>
      </trkpt>
      <trkpt lat="46.88638" lon="-1.02114">
        <ele>141</ele>
        <time>2021-09-04T17:02:57Z</time>
      </trkpt>
      <trkpt lat="46.88563" lon="-1.02105">
        <ele>138</ele>
        <time>2021-09-04T17:03:11Z</time>
      </trkpt>
      <trkpt lat="46.88503" lon="-1.02091">
        <ele>135</ele>
        <time>2021-09-04T17:03:22Z</time>
      </trkpt>
      <trkpt lat="46.88459" lon="-1.02093">
        <ele>134</ele>
        <time>2021-09-04T17:03:29Z</time>
      </trkpt>
      <trkpt lat="46.88424" lon="-1.02088">
        <ele>133</ele>
        <time>2021-09-04T17:03:36Z</time>
      </trkpt>
      <trkpt lat="46.88406" lon="-1.02077">
        <ele>133</ele>
        <time>2021-09-04T17:03:39Z</time>
      </trkpt>
      <trkpt lat="46.88389" lon="-1.02062">
        <ele>134</ele>
        <time>2021-09-04T17:03:43Z</time>
      </trkpt>
      <trkpt lat="46.88371" lon="-1.02034">
        <ele>135</ele>
        <time>2021-09-04T17:03:47Z</time>
      </trkpt>
      <trkpt lat="46.88354" lon="-1.02022">
        <ele>135</ele>
        <time>2021-09-04T17:03:51Z</time>
      </trkpt>
      <trkpt lat="46.88282" lon="-1.0198">
        <ele>135</ele>
        <time>2021-09-04T17:04:04Z</time>
      </trkpt>
      <trkpt lat="46.88223" lon="-1.01929">
        <ele>134</ele>
        <time>2021-09-04T17:04:17Z</time>
      </trkpt>
      <trkpt lat="46.88179" lon="-1.01875">
        <ele>134</ele>
        <time>2021-09-04T17:04:27Z</time>
      </trkpt>
      <trkpt lat="46.88133" lon="-1.01871">
        <ele>132</ele>
        <time>2021-09-04T17:04:35Z</time>
      </trkpt>
      <trkpt lat="46.88127" lon="-1.01812">
        <ele>132</ele>
        <time>2021-09-04T17:04:42Z</time>
      </trkpt>
      <trkpt lat="46.88118" lon="-1.01768">
        <ele>132</ele>
        <time>2021-09-04T17:04:48Z</time>
      </trkpt>
      <trkpt lat="46.88097" lon="-1.01721">
        <ele>133</ele>
        <time>2021-09-04T17:04:55Z</time>
      </trkpt>
      <trkpt lat="46.88091" lon="-1.01727">
        <ele>132</ele>
        <time>2021-09-04T17:04:56Z</time>
      </trkpt>
      <trkpt lat="46.88087" lon="-1.01726">
        <ele>132</ele>
        <time>2021-09-04T17:04:57Z</time>
      </trkpt>
      <trkpt lat="46.88083" lon="-1.0172">
        <ele>132</ele>
        <time>2021-09-04T17:04:58Z</time>
      </trkpt>
      <trkpt lat="46.88077" lon="-1.01726">
        <ele>132</ele>
        <time>2021-09-04T17:04:59Z</time>
      </trkpt>
      <trkpt lat="46.88045" lon="-1.01748">
        <ele>130</ele>
        <time>2021-09-04T17:05:05Z</time>
      </trkpt>
      <trkpt lat="46.87992" lon="-1.01775">
        <ele>128</ele>
        <time>2021-09-04T17:05:15Z</time>
      </trkpt>
      <trkpt lat="46.87966" lon="-1.01785">
        <ele>127</ele>
        <time>2021-09-04T17:05:20Z</time>
      </trkpt>
      <trkpt lat="46.87928" lon="-1.01795">
        <ele>125</ele>
        <time>2021-09-04T17:05:27Z</time>
      </trkpt>
      <trkpt lat="46.87898" lon="-1.01798">
        <ele>124</ele>
        <time>2021-09-04T17:05:32Z</time>
      </trkpt>
      <trkpt lat="46.87897" lon="-1.01806">
        <ele>124</ele>
        <time>2021-09-04T17:05:33Z</time>
      </trkpt>
      <trkpt lat="46.87894" lon="-1.0181">
        <ele>124</ele>
        <time>2021-09-04T17:05:34Z</time>
      </trkpt>
      <trkpt lat="46.8789" lon="-1.01812">
        <ele>124</ele>
        <time>2021-09-04T17:05:35Z</time>
      </trkpt>
      <trkpt lat="46.87883" lon="-1.01808">
        <ele>124</ele>
        <time>2021-09-04T17:05:36Z</time>
      </trkpt>
      <trkpt lat="46.87881" lon="-1.018">
        <ele>124</ele>
        <time>2021-09-04T17:05:37Z</time>
      </trkpt>
      <trkpt lat="46.87793" lon="-1.018">
        <ele>121</ele>
        <time>2021-09-04T17:05:53Z</time>
      </trkpt>
      <trkpt lat="46.87793" lon="-1.0178">
        <ele>121</ele>
        <time>2021-09-04T17:05:55Z</time>
      </trkpt>
      <trkpt lat="46.8778" lon="-1.01778">
        <ele>121</ele>
        <time>2021-09-04T17:05:58Z</time>
      </trkpt>
      <trkpt lat="46.87776" lon="-1.01771">
        <ele>121</ele>
        <time>2021-09-04T17:05:59Z</time>
      </trkpt>
      <trkpt lat="46.87774" lon="-1.01756">
        <ele>121</ele>
        <time>2021-09-04T17:06:01Z</time>
      </trkpt>
      <trkpt lat="46.87761" lon="-1.01756">
        <ele>120</ele>
        <time>2021-09-04T17:06:03Z</time>
      </trkpt>
      <trkpt lat="46.8776" lon="-1.01692">
        <ele>120</ele>
        <time>2021-09-04T17:06:11Z</time>
      </trkpt>
      <trkpt lat="46.87762" lon="-1.0167">
        <ele>120</ele>
        <time>2021-09-04T17:06:13Z</time>
      </trkpt>
      <trkpt lat="46.8776" lon="-1.01528">
        <ele>121</ele>
        <time>2021-09-04T17:06:31Z</time>
      </trkpt>
      <trkpt lat="46.87743" lon="-1.01524">
        <ele>120</ele>
        <time>2021-09-04T17:06:34Z</time>
      </trkpt>
      <trkpt lat="46.87714" lon="-1.01513">
        <ele>119</ele>
        <time>2021-09-04T17:06:39Z</time>
      </trkpt>
      <trkpt lat="46.87655" lon="-1.01479">
        <ele>119</ele>
        <time>2021-09-04T17:06:50Z</time>
      </trkpt>
      <trkpt lat="46.87604" lon="-1.01452">
        <ele>121</ele>
        <time>2021-09-04T17:07:00Z</time>
      </trkpt>
      <trkpt lat="46.87549" lon="-1.01446">
        <ele>123</ele>
        <time>2021-09-04T17:07:10Z</time>
      </trkpt>
      <trkpt lat="46.87534" lon="-1.01441">
        <ele>123</ele>
        <time>2021-09-04T17:07:13Z</time>
      </trkpt>
      <trkpt lat="46.87526" lon="-1.01433">
        <ele>123</ele>
        <time>2021-09-04T17:07:14Z</time>
      </trkpt>
      <trkpt lat="46.87516" lon="-1.01402">
        <ele>124</ele>
        <time>2021-09-04T17:07:18Z</time>
      </trkpt>
      <trkpt lat="46.87351" lon="-1.01482">
        <ele>115</ele>
        <time>2021-09-04T17:07:49Z</time>
      </trkpt>
      <trkpt lat="46.87343" lon="-1.01481">
        <ele>115</ele>
        <time>2021-09-04T17:07:51Z</time>
      </trkpt>
      <trkpt lat="46.87329" lon="-1.0141">
        <ele>114</ele>
        <time>2021-09-04T17:08:00Z</time>
      </trkpt>
      <trkpt lat="46.87325" lon="-1.01397">
        <ele>113</ele>
        <time>2021-09-04T17:08:01Z</time>
      </trkpt>
      <trkpt lat="46.87325" lon="-1.01387">
        <ele>113</ele>
        <time>2021-09-04T17:08:03Z</time>
      </trkpt>
      <trkpt lat="46.87307" lon="-1.01302">
        <ele>111</ele>
        <time>2021-09-04T17:08:14Z</time>
      </trkpt>
      <trkpt lat="46.87303" lon="-1.01285">
        <ele>110</ele>
        <time>2021-09-04T17:08:16Z</time>
      </trkpt>
      <trkpt lat="46.87295" lon="-1.01275">
        <ele>110</ele>
        <time>2021-09-04T17:08:18Z</time>
      </trkpt>
      <trkpt lat="46.87288" lon="-1.01272">
        <ele>110</ele>
        <time>2021-09-04T17:08:19Z</time>
      </trkpt>
      <trkpt lat="46.8729" lon="-1.01227">
        <ele>109</ele>
        <time>2021-09-04T17:08:24Z</time>
      </trkpt>
      <trkpt lat="46.87293" lon="-1.01217">
        <ele>109</ele>
        <time>2021-09-04T17:08:26Z</time>
      </trkpt>
      <trkpt lat="46.87292" lon="-1.01211">
        <ele>109</ele>
        <time>2021-09-04T17:08:26Z</time>
      </trkpt>
      <trkpt lat="46.8726" lon="-1.01126">
        <ele>108</ele>
        <time>2021-09-04T17:08:38Z</time>
      </trkpt>
      <trkpt lat="46.87231" lon="-1.01008">
        <ele>108</ele>
        <time>2021-09-04T17:08:53Z</time>
      </trkpt>
      <trkpt lat="46.87228" lon="-1.00985">
        <ele>108</ele>
        <time>2021-09-04T17:08:56Z</time>
      </trkpt>
      <trkpt lat="46.87208" lon="-1.00919">
        <ele>108</ele>
        <time>2021-09-04T17:09:05Z</time>
      </trkpt>
      <trkpt lat="46.87202" lon="-1.00906">
        <ele>108</ele>
        <time>2021-09-04T17:09:07Z</time>
      </trkpt>
      <trkpt lat="46.87186" lon="-1.00883">
        <ele>107</ele>
        <time>2021-09-04T17:09:11Z</time>
      </trkpt>
      <trkpt lat="46.87156" lon="-1.00833">
        <ele>106</ele>
        <time>2021-09-04T17:09:19Z</time>
      </trkpt>
      <trkpt lat="46.87141" lon="-1.0082">
        <ele>105</ele>
        <time>2021-09-04T17:09:22Z</time>
      </trkpt>
      <trkpt lat="46.87116" lon="-1.00778">
        <ele>104</ele>
        <time>2021-09-04T17:09:29Z</time>
      </trkpt>
      <trkpt lat="46.87098" lon="-1.00771">
        <ele>104</ele>
        <time>2021-09-04T17:09:32Z</time>
      </trkpt>
      <trkpt lat="46.87089" lon="-1.00767">
        <ele>103</ele>
        <time>2021-09-04T17:09:34Z</time>
      </trkpt>
      <trkpt lat="46.87046" lon="-1.0075">
        <ele>104</ele>
        <time>2021-09-04T17:09:42Z</time>
      </trkpt>
      <trkpt lat="46.87042" lon="-1.00732">
        <ele>105</ele>
        <time>2021-09-04T17:09:44Z</time>
      </trkpt>
      <trkpt lat="46.86977" lon="-1.00669">
        <ele>108</ele>
        <time>2021-09-04T17:09:58Z</time>
      </trkpt>
      <trkpt lat="46.86947" lon="-1.00665">
        <ele>109</ele>
        <time>2021-09-04T17:10:03Z</time>
      </trkpt>
      <trkpt lat="46.86853" lon="-1.00633">
        <ele>112</ele>
        <time>2021-09-04T17:10:21Z</time>
      </trkpt>
      <trkpt lat="46.86836" lon="-1.00634">
        <ele>112</ele>
        <time>2021-09-04T17:10:24Z</time>
      </trkpt>
      <trkpt lat="46.86765" lon="-1.00654">
        <ele>111</ele>
        <time>2021-09-04T17:10:37Z</time>
      </trkpt>
      <trkpt lat="46.86714" lon="-1.00674">
        <ele>111</ele>
        <time>2021-09-04T17:10:46Z</time>
      </trkpt>
      <trkpt lat="46.86712" lon="-1.00666">
        <ele>111</ele>
        <time>2021-09-04T17:10:47Z</time>
      </trkpt>
      <trkpt lat="46.86708" lon="-1.0066">
        <ele>111</ele>
        <time>2021-09-04T17:10:48Z</time>
      </trkpt>
      <trkpt lat="46.86664" lon="-1.00646">
        <ele>111</ele>
        <time>2021-09-04T17:10:56Z</time>
      </trkpt>
      <trkpt lat="46.86595" lon="-1.00621">
        <ele>116</ele>
        <time>2021-09-04T17:11:09Z</time>
      </trkpt>
      <trkpt lat="46.86573" lon="-1.00609">
        <ele>117</ele>
        <time>2021-09-04T17:11:13Z</time>
      </trkpt>
      <trkpt lat="46.86523" lon="-1.00577">
        <ele>118</ele>
        <time>2021-09-04T17:11:23Z</time>
      </trkpt>
      <trkpt lat="46.86495" lon="-1.00567">
        <ele>119</ele>
        <time>2021-09-04T17:11:28Z</time>
      </trkpt>
      <trkpt lat="46.86461" lon="-1.00561">
        <ele>120</ele>
        <time>2021-09-04T17:11:34Z</time>
      </trkpt>
      <trkpt lat="46.86426" lon="-1.00564">
        <ele>120</ele>
        <time>2021-09-04T17:11:40Z</time>
      </trkpt>
      <trkpt lat="46.86391" lon="-1.00556">
        <ele>120</ele>
        <time>2021-09-04T17:11:46Z</time>
      </trkpt>
      <trkpt lat="46.86382" lon="-1.00562">
        <ele>120</ele>
        <time>2021-09-04T17:11:48Z</time>
      </trkpt>
    </trkseg>
  </trk>
</gpx>